IT9CNT Weather Reports


time (UTC)temp
F
wind
direction
speed
knots
gust
knots
rain 1hr
in
rain 24hr
in
rain mn
in
humidity
%
barometer
mb
20260507142703 71 102 7.8 11.3 0.00 0.00 0.00 83 1006.1
20260507142603 70 100 8.7 12.2 0.00 0.00 0.00 84 1006.1
20260507142503 70 98 8.7 12.2 0.00 0.00 0.00 83 1005.9
20260507142403 69 99 9.6 12.2 0.00 0.00 0.00 84 1005.9
20260507142306 69 99 10.4 13.0 0.00 0.00 0.00 84 1005.8
20260507142203 69 100 10.4 13.0 0.00 0.00 0.00 84 1006.0
20260507142103 69 103 10.4 13.0 0.00 0.00 0.00 83 1005.9
20260507142003 68 102 9.6 13.0 0.00 0.00 0.00 84 1005.8
20260507141903 69 96 9.6 13.0 0.00 0.00 0.00 84 1006.0
20260507141803 69 89 9.6 13.0 0.00 0.00 0.00 84 1006.0
20260507141703 69 85 9.6 13.0 0.00 0.00 0.00 84 1006.0
20260507141603 70 85 9.6 13.0 0.00 0.00 0.00 83 1006.2
20260507141503 70 90 9.6 13.0 0.00 0.00 0.00 84 1005.9
20260507141403 69 87 9.6 13.0 0.00 0.00 0.00 84 1006.0
20260507141303 69 84 9.6 13.0 0.00 0.00 0.00 84 1006.1
20260507141203 70 78 9.6 12.2 0.00 0.00 0.00 84 1006.2
20260507141103 69 74 9.6 12.2 0.00 0.00 0.00 84 1006.1
20260507141003 69 73 8.7 12.2 0.00 0.00 0.00 84 1006.0
20260507140903 69 74 8.7 12.2 0.00 0.00 0.00 84 1006.1
20260507140803 69 81 8.7 11.3 0.00 0.00 0.00 84 1006.3
20260507140703 69 77 8.7 14.8 0.00 0.00 0.00 84 1006.2
20260507140603 70 70 8.7 14.8 0.00 0.00 0.00 84 1006.1
20260507140503 70 65 8.7 14.8 0.00 0.00 0.00 84 1006.0
20260507140403 69 61 7.8 14.8 0.00 0.00 0.00 84 1006.1
20260507140303 69 60 7.8 14.8 0.00 0.00 0.00 84 1005.9
20260507140203 70 63 7.8 14.8 0.00 0.00 0.00 84 1006.1
20260507140103 70 60 7.8 14.8 0.00 0.00 0.00 84 1006.0
20260507140004 70 62 7.8 14.8 0.00 0.00 0.00 84 1006.0
20260507135903 69 67 7.8 14.8 0.00 0.00 0.00 84 1006.0
20260507135804 70 74 7.8 14.8 0.00 0.00 0.00 84 1006.2
20260507135703 69 76 7.8 14.8 0.00 0.00 0.00 84 1006.1
20260507135603 70 79 7.8 9.6 0.00 0.00 0.00 83 1006.0
20260507135503 70 82 7.8 9.6 0.00 0.00 0.00 84 1006.1
20260507135403 70 87 7.8 9.6 0.00 0.00 0.00 84 1006.2
20260507135306 70 89 7.8 9.6 0.00 0.00 0.00 84 1006.1
20260507135203 69 89 7.8 9.6 0.00 0.00 0.00 84 1006.2
20260507135103 69 95 7.8 9.6 0.00 0.00 0.00 84 1006.2
20260507135003 69 94 7.8 9.6 0.00 0.00 0.00 84 1006.0
20260507134903 69 93 7.8 9.6 0.00 0.00 0.00 84 1006.1
20260507134803 69 91 7.8 9.6 0.00 0.00 0.00 84 1006.2
20260507134703 69 94 7.0 9.6 0.00 0.00 0.00 84 1006.1
20260507134603 69 100 6.1 9.6 0.00 0.00 0.00 84 1006.3
20260507134503 69 101 7.0 9.6 0.00 0.00 0.00 84 1006.3
20260507134403 70 104 7.0 9.6 0.00 0.00 0.00 84 1006.3
20260507134303 70 104 7.0 11.3 0.00 0.00 0.00 84 1006.1
20260507134203 69 101 7.0 11.3 0.00 0.00 0.00 84 1006.3
20260507134103 69 98 7.0 11.3 0.00 0.00 0.00 84 1006.1
20260507134003 69 94 7.8 11.3 0.00 0.00 0.00 84 1006.1
20260507133903 70 89 7.8 11.3 0.00 0.00 0.00 84 1006.3
20260507133803 70 89 7.8 11.3 0.00 0.00 0.00 83 1006.1
20260507133703 70 90 8.7 11.3 0.00 0.00 0.00 84 1006.1
20260507133603 69 91 8.7 11.3 0.00 0.00 0.00 84 1006.1
20260507133503 69 94 9.6 11.3 0.00 0.00 0.00 84 1006.0
20260507133403 69 92 9.6 12.2 0.00 0.00 0.00 84 1006.2
20260507133303 69 91 8.7 12.2 0.00 0.00 0.00 84 1006.2
20260507133203 69 96 9.6 12.2 0.00 0.00 0.00 84 1006.1
20260507133103 69 97 9.6 12.2 0.00 0.00 0.00 84 1006.3
20260507133003 69 97 9.6 12.2 0.00 0.00 0.00 84 1006.1
20260507132903 70 98 9.6 12.2 0.00 0.00 0.00 84 1006.5
20260507132803 69 99 9.6 12.2 0.00 0.00 0.00 84 1006.4
20260507132703 69 93 9.6 12.2 0.00 0.00 0.00 84 1006.4
20260507132603 69 94 9.6 12.2 0.00 0.00 0.00 84 1006.2
20260507132503 69 92 9.6 12.2 0.00 0.00 0.00 84 1006.4
20260507132403 70 92 8.7 11.3 0.00 0.00 0.00 84 1006.5
20260507132307 70 87 8.7 11.3 0.00 0.00 0.00 84 1006.3
20260507132203 69 84 9.6 11.3 0.00 0.00 0.00 84 1006.2
20260507132103 70 80 9.6 12.2 0.00 0.00 0.00 84 1006.5
20260507132003 70 82 9.6 12.2 0.00 0.00 0.00 84 1006.5
20260507131903 70 84 9.6 12.2 0.00 0.00 0.00 83 1006.4
20260507131803 70 91 9.6 12.2 0.00 0.00 0.00 84 1006.5
20260507131703 69 97 9.6 12.2 0.00 0.00 0.00 84 1006.3
20260507131603 70 99 9.6 12.2 0.00 0.00 0.00 84 1006.2
20260507131503 69 97 9.6 12.2 0.00 0.00 0.00 84 1006.4
20260507131403 69 93 9.6 12.2 0.00 0.00 0.00 84 1006.2
20260507131303 69 96 9.6 12.2 0.00 0.00 0.00 84 1006.3
20260507131203 69 96 9.6 12.2 0.00 0.00 0.00 84 1006.2
20260507131103 69 99 9.6 12.2 0.00 0.00 0.00 84 1006.3
20260507131003 69 103 8.7 12.2 0.00 0.00 0.00 84 1006.2
20260507130903 69 104 9.6 11.3 0.00 0.00 0.00 84 1006.4
20260507130803 69 101 9.6 11.3 0.00 0.00 0.00 84 1006.2
20260507130703 69 102 9.6 13.0 0.00 0.00 0.00 84 1006.4
20260507130603 69 102 10.4 15.6 0.00 0.00 0.00 84 1006.4
20260507130503 69 100 11.3 15.6 0.00 0.00 0.00 84 1006.1
20260507130403 69 102 11.3 15.6 0.00 0.00 0.00 84 1006.3
20260507130303 69 103 11.3 15.6 0.00 0.00 0.00 84 1006.6
20260507130203 69 103 11.3 15.6 0.00 0.00 0.00 84 1006.3
20260507130103 69 105 11.3 15.6 0.00 0.00 0.00 84 1006.5
20260507130004 69 101 11.3 15.6 0.00 0.00 0.00 84 1006.4
20260507125903 69 102 10.4 15.6 0.00 0.00 0.00 84 1006.3
20260507125803 69 98 10.4 15.6 0.00 0.00 0.00 84 1006.3
20260507125703 68 96 10.4 15.6 0.00 0.00 0.00 84 1006.3
20260507125603 68 94 9.6 15.6 0.00 0.00 0.00 84 1006.4
20260507125503 69 95 9.6 11.3 0.00 0.00 0.00 84 1006.4
20260507125403 69 100 9.6 13.9 0.00 0.00 0.00 84 1006.3
20260507125306 69 99 9.6 13.9 0.00 0.00 0.00 84 1006.5
20260507125203 69 93 10.4 14.8 0.00 0.00 0.00 84 1006.5
20260507125103 69 90 10.4 14.8 0.00 0.00 0.00 84 1006.6
20260507125003 69 87 10.4 14.8 0.00 0.00 0.00 84 1006.4
20260507124903 69 87 10.4 14.8 0.00 0.00 0.00 84 1006.5
20260507124803 69 88 9.6 14.8 0.00 0.00 0.00 84 1006.4
20260507124703 69 89 9.6 14.8 0.00 0.00 0.00 84 1006.4
20260507124603 69 86 10.4 14.8 0.00 0.00 0.00 84 1006.7
20260507124503 68 87 10.4 14.8 0.00 0.00 0.00 84 1006.5
20260507124403 69 85 9.6 14.8 0.00 0.00 0.00 84 1006.6
20260507124303 68 83 10.4 14.8 0.00 0.00 0.00 84 1006.6
20260507124203 68 90 9.6 14.8 0.00 0.00 0.00 84 1006.6
20260507124103 69 96 9.6 13.0 0.00 0.00 0.00 84 1006.6
20260507124003 69 103 9.6 13.0 0.00 0.00 0.00 84 1006.5
20260507123903 69 105 10.4 13.0 0.00 0.00 0.00 84 1006.3
20260507123803 69 100 10.4 13.9 0.00 0.00 0.00 84 1006.4
20260507123703 69 99 11.3 13.9 0.00 0.00 0.00 84 1006.5
20260507123603 69 101 12.2 15.6 0.00 0.00 0.00 84 1006.4
20260507123503 68 103 12.2 15.6 0.00 0.00 0.00 84 1006.5
20260507123403 68 102 12.2 15.6 0.00 0.00 0.00 84 1006.6
20260507123303 68 104 11.3 15.6 0.00 0.00 0.00 84 1006.7
20260507123203 68 106 11.3 15.6 0.00 0.00 0.00 84 1006.7
20260507123103 68 107 11.3 15.6 0.00 0.00 0.00 84 1006.6
20260507123003 69 100 11.3 15.6 0.00 0.00 0.00 84 1006.5
20260507122903 69 96 11.3 15.6 0.00 0.00 0.00 84 1006.6
20260507122803 68 100 11.3 15.6 0.00 0.00 0.00 84 1006.5
20260507122705 69 95 11.3 15.6 0.00 0.00 0.00 84 1006.5
20260507122603 69 86 11.3 15.6 0.00 0.00 0.00 84 1006.4
20260507122503 69 82 10.4 13.9 0.00 0.00 0.00 84 1006.2
20260507122403 69 74 10.4 13.9 0.00 0.00 0.00 84 1006.4
20260507122306 69 66 10.4 13.9 0.00 0.00 0.00 84 1006.3
20260507122203 69 58 9.6 13.9 0.00 0.00 0.00 84 1006.3
20260507122103 69 51 9.6 13.9 0.00 0.00 0.00 84 1006.7
20260507122004 69 52 9.6 13.9 0.00 0.00 0.00 84 1006.6
20260507121903 69 54 8.7 13.9 0.00 0.00 0.00 84 1006.5
20260507121803 69 58 8.7 13.9 0.00 0.00 0.00 84 1006.8
20260507121703 69 65 8.7 13.9 0.00 0.00 0.00 84 1006.6
20260507121603 69 75 7.8 11.3 0.00 0.00 0.00 84 1006.6
20260507121503 69 76 7.8 9.6 0.00 0.00 0.00 84 1006.6
20260507121403 69 86 7.8 9.6 0.00 0.00 0.00 84 1006.6
20260507121303 69 91 7.8 9.6 0.00 0.00 0.00 84 1006.5
20260507121203 69 91 8.7 9.6 0.00 0.00 0.00 84 1006.6
20260507121103 69 93 8.7 9.6 0.00 0.00 0.00 84 1006.5
20260507121003 69 89 8.7 13.9 0.00 0.00 0.00 84 1006.8
20260507120903 69 88 9.6 13.9 0.00 0.00 0.00 84 1006.6
20260507120803 69 88 9.6 13.9 0.00 0.00 0.00 84 1006.5
20260507120703 69 92 9.6 13.9 0.00 0.00 0.00 84 1006.6
20260507120603 69 93 10.4 13.9 0.00 0.00 0.00 84 1006.6
20260507120503 69 96 10.4 13.9 0.00 0.00 0.00 84 1006.6
20260507120403 69 87 10.4 13.9 0.00 0.00 0.00 84 1006.8
20260507120303 69 76 10.4 13.9 0.00 0.00 0.00 84 1006.7
20260507120203 69 83 10.4 13.9 0.00 0.00 0.00 84 1006.8
20260507120103 69 81 10.4 13.9 0.00 0.00 0.00 84 1006.8
20260507120004 68 77 10.4 13.9 0.00 0.00 0.00 84 1006.8
20260507115903 68 75 9.6 13.9 0.00 0.00 0.00 84 1006.8
20260507115803 69 60 9.6 13.0 0.00 0.00 0.00 84 1006.7
20260507115703 69 62 9.6 12.2 0.00 0.00 0.00 84 1006.7
20260507115603 69 74 9.6 12.2 0.00 0.00 0.00 84 1006.5
20260507115503 69 71 9.6 12.2 0.00 0.00 0.00 84 1006.7
20260507115403 69 77 9.6 13.9 0.00 0.00 0.00 84 1006.4
20260507115306 69 85 9.6 13.9 0.00 0.00 0.00 84 1006.6
20260507115103 69 86 9.6 13.9 0.00 0.00 0.00 84 1006.6
20260507115003 69 91 9.6 13.9 0.00 0.00 0.00 84 1006.5
20260507114903 69 90 9.6 13.9 0.00 0.00 0.00 84 1006.7
20260507114803 68 92 9.6 13.9 0.00 0.00 0.00 84 1006.7
20260507114703 69 88 9.6 13.9 0.00 0.00 0.00 84 1006.4
20260507114603 69 85 10.4 13.9 0.00 0.00 0.00 84 1006.5
20260507114503 69 81 10.4 13.9 0.00 0.00 0.00 84 1006.5
20260507114403 69 74 11.3 13.9 0.00 0.00 0.00 84 1006.5
20260507114303 69 68 10.4 13.0 0.00 0.00 0.00 84 1006.3
20260507114203 69 69 10.4 13.0 0.00 0.00 0.00 84 1006.8
20260507114103 69 69 10.4 13.0 0.00 0.00 0.00 84 1006.6
20260507114003 69 66 10.4 13.0 0.00 0.00 0.00 84 1006.7
20260507113903 69 64 10.4 13.0 0.00 0.00 0.00 84 1006.6
20260507113803 69 62 10.4 13.0 0.00 0.00 0.00 84 1006.5
20260507113703 69 63 10.4 13.0 0.00 0.00 0.00 84 1006.7
20260507113603 69 64 10.4 13.0 0.00 0.00 0.00 84 1006.8
20260507113503 69 67 9.6 13.0 0.00 0.00 0.00 84 1006.6
20260507113403 69 69 9.6 12.2 0.00 0.00 0.00 84 1006.4
20260507113303 70 72 9.6 12.2 0.00 0.00 0.00 83 1006.5
20260507113203 69 72 9.6 12.2 0.00 0.00 0.00 84 1006.5
20260507113103 69 72 9.6 13.0 0.00 0.00 0.00 84 1006.4
20260507113004 69 79 9.6 13.0 0.00 0.00 0.00 84 1006.4
20260507112903 69 82 9.6 13.0 0.00 0.00 0.00 83 1006.7
20260507112803 70 85 9.6 13.9 0.00 0.00 0.00 83 1006.5
20260507112703 69 85 10.4 13.9 0.00 0.00 0.00 83 1006.8
20260507112603 70 85 11.3 14.8 0.00 0.00 0.00 84 1006.6
20260507112503 70 85 11.3 14.8 0.00 0.00 0.00 84 1006.5
20260507112403 70 89 11.3 14.8 0.00 0.00 0.00 83 1006.6
20260507112306 69 94 11.3 14.8 0.00 0.00 0.00 83 1006.6
20260507112203 69 95 11.3 14.8 0.00 0.00 0.00 83 1006.6
20260507112103 70 100 11.3 14.8 0.00 0.00 0.00 84 1006.8
20260507112003 70 99 11.3 15.6 0.00 0.00 0.00 83 1006.6
20260507111904 69 96 11.3 15.6 0.00 0.00 0.00 83 1006.5
20260507111803 69 95 11.3 15.6 0.00 0.00 0.00 83 1006.8
20260507111703 69 89 11.3 15.6 0.00 0.00 0.00 83 1006.7
20260507111603 70 89 11.3 18.2 0.00 0.00 0.00 83 1006.6
20260507111504 70 89 12.2 18.2 0.00 0.00 0.00 83 1006.7
20260507111403 70 87 12.2 18.2 0.00 0.00 0.00 83 1006.5
20260507111303 70 85 13.0 18.2 0.00 0.00 0.00 83 1006.6
20260507111203 70 81 13.0 18.2 0.00 0.00 0.00 83 1006.5
20260507111103 70 74 12.2 18.2 0.00 0.00 0.00 83 1006.4
20260507111003 70 76 12.2 18.2 0.00 0.00 0.00 83 1006.4
20260507110903 70 79 12.2 18.2 0.00 0.00 0.00 83 1006.4
20260507110803 70 81 13.0 18.2 0.00 0.00 0.00 83 1006.5
20260507110703 70 86 13.0 18.2 0.00 0.00 0.00 83 1006.4
20260507110603 70 86 13.0 18.2 0.00 0.00 0.00 83 1006.3
20260507110503 70 86 12.2 15.6 0.00 0.00 0.00 83 1006.3
20260507110403 70 89 12.2 15.6 0.00 0.00 0.00 83 1006.3
20260507110303 70 93 12.2 15.6 0.00 0.00 0.00 83 1006.3
20260507110203 70 98 12.2 15.6 0.00 0.00 0.00 83 1006.4
20260507110103 70 99 13.0 15.6 0.00 0.00 0.00 83 1006.4
20260507110003 69 99 12.2 15.6 0.00 0.00 0.00 83 1006.5
20260507105903 69 100 12.2 15.6 0.00 0.00 0.00 83 1006.3
20260507105803 70 104 12.2 14.8 0.00 0.00 0.00 83 1006.2
20260507105703 71 105 12.2 15.6 0.00 0.00 0.00 82 1006.4
20260507105603 71 107 13.0 15.6 0.00 0.00 0.00 83 1006.5
20260507105503 71 110 13.9 19.1 0.00 0.00 0.00 83 1006.3
20260507105403 70 108 13.0 19.1 0.00 0.00 0.00 83 1006.0
20260507105306 71 106 13.0 19.1 0.00 0.00 0.00 83 1006.4
20260507105203 70 102 13.0 19.1 0.00 0.00 0.00 83 1006.3
20260507105103 71 102 13.9 19.1 0.00 0.00 0.00 83 1006.2
20260507105003 70 101 13.0 19.1 0.00 0.00 0.00 83 1006.3
20260507104903 70 104 13.0 19.1 0.00 0.00 0.00 83 1006.3
20260507104803 70 106 13.0 19.1 0.00 0.00 0.00 83 1006.4
20260507104703 70 108 13.0 19.1 0.00 0.00 0.00 83 1006.6
20260507104603 70 106 13.0 19.1 0.00 0.00 0.00 83 1006.5
20260507104503 70 106 13.0 19.1 0.00 0.00 0.00 83 1006.4
20260507104403 70 105 13.9 19.1 0.00 0.00 0.00 83 1006.4
20260507104303 70 103 13.9 19.1 0.00 0.00 0.00 83 1006.3
20260507104203 71 102 13.9 19.1 0.00 0.00 0.00 82 1006.1
20260507104103 72 105 13.9 19.1 0.00 0.00 0.00 82 1006.2
20260507104003 70 107 13.9 19.1 0.00 0.00 0.00 82 1006.4
20260507103903 70 104 14.8 19.1 0.00 0.00 0.00 82 1006.7
20260507103803 70 104 15.6 20.9 0.00 0.00 0.00 83 1006.5
20260507103703 70 104 15.6 20.9 0.00 0.00 0.00 82 1006.8
20260507103603 70 101 15.6 20.9 0.00 0.00 0.00 82 1006.6
20260507103503 70 99 15.6 20.9 0.00 0.00 0.00 82 1006.7
20260507103403 70 96 14.8 20.9 0.00 0.00 0.00 83 1006.7
20260507103303 70 98 13.9 20.9 0.00 0.00 0.00 82 1006.8
20260507103203 70 99 13.9 20.9 0.00 0.00 0.00 82 1006.4
20260507103103 70 99 13.9 20.9 0.00 0.00 0.00 82 1006.4
20260507103003 70 98 13.9 20.9 0.00 0.00 0.00 82 1006.5
20260507102903 70 99 13.9 20.9 0.00 0.00 0.00 82 1006.6
20260507102803 70 94 13.9 20.9 0.00 0.00 0.00 82 1006.9
20260507102703 71 93 13.9 19.1 0.00 0.00 0.00 81 1006.9
20260507102603 71 95 13.9 19.1 0.00 0.00 0.00 82 1006.7
20260507102503 70 96 13.9 19.1 0.00 0.00 0.00 82 1006.7
20260507102403 70 96 14.8 19.1 0.00 0.00 0.00 82 1006.5
20260507102306 70 97 14.8 19.1 0.00 0.00 0.00 82 1006.4
20260507102203 70 96 15.6 23.5 0.00 0.00 0.00 82 1006.6
20260507102103 71 97 16.5 23.5 0.00 0.00 0.00 81 1006.4
20260507102003 70 98 16.5 23.5 0.00 0.00 0.00 82 1006.5
20260507101903 71 96 16.5 23.5 0.00 0.00 0.00 82 1006.4
20260507101803 70 99 16.5 23.5 0.00 0.00 0.00 82 1006.4
20260507101703 70 96 16.5 23.5 0.00 0.00 0.00 82 1006.5
20260507101603 70 98 16.5 23.5 0.00 0.00 0.00 82 1006.3
20260507101503 70 95 16.5 23.5 0.00 0.00 0.00 82 1006.5
20260507101403 70 98 16.5 23.5 0.00 0.00 0.00 82 1006.5
20260507101303 70 97 16.5 23.5 0.00 0.00 0.00 81 1006.4
20260507101203 70 95 15.6 21.7 0.00 0.00 0.00 81 1006.3
20260507101103 71 90 14.8 21.7 0.00 0.00 0.00 81 1006.4
20260507101003 70 90 15.6 21.7 0.00 0.00 0.00 82 1006.2
20260507100903 70 92 15.6 21.7 0.00 0.00 0.00 82 1006.3
20260507100803 70 88 14.8 19.1 0.00 0.00 0.00 81 1006.3
20260507100703 70 91 14.8 19.1 0.00 0.00 0.00 81 1006.3
20260507100603 71 94 15.6 19.1 0.00 0.00 0.00 81 1006.4
20260507100503 70 97 14.8 19.1 0.00 0.00 0.00 82 1006.4
20260507100403 70 99 14.8 19.1 0.00 0.00 0.00 82 1006.3
20260507100303 70 95 14.8 19.1 0.00 0.00 0.00 81 1006.3
20260507100203 71 98 14.8 19.1 0.00 0.00 0.00 81 1006.4
20260507100103 70 99 14.8 19.1 0.00 0.00 0.00 82 1006.2
20260507100004 70 104 15.6 19.1 0.00 0.00 0.00 82 1006.3
20260507095903 71 101 15.6 19.1 0.00 0.00 0.00 81 1006.3
20260507095803 70 105 15.6 19.1 0.00 0.00 0.00 82 1006.3
20260507095703 70 109 15.6 19.1 0.00 0.00 0.00 81 1006.2
20260507095603 71 108 14.8 18.2 0.00 0.00 0.00 81 1006.2
20260507095503 70 107 14.8 18.2 0.00 0.00 0.00 82 1006.4
20260507095403 70 101 14.8 18.2 0.00 0.00 0.00 81 1006.3
20260507095305 70 103 14.8 18.2 0.00 0.00 0.00 81 1006.5
20260507095203 69 102 14.8 18.2 0.00 0.00 0.00 82 1006.5
20260507095103 70 103 14.8 20.0 0.00 0.00 0.00 82 1006.7
20260507095003 70 103 14.8 20.0 0.00 0.00 0.00 81 1006.6
20260507094903 70 103 13.9 20.0 0.00 0.00 0.00 81 1006.6
20260507094803 71 98 14.8 20.0 0.00 0.00 0.00 81 1006.4
20260507094703 71 93 14.8 20.0 0.00 0.00 0.00 81 1006.7
20260507094603 71 95 14.8 20.0 0.00 0.00 0.00 81 1006.6
20260507094503 71 93 14.8 20.0 0.00 0.00 0.00 81 1006.5
20260507094403 70 98 14.8 20.0 0.00 0.00 0.00 82 1006.7
20260507094303 70 101 14.8 20.0 0.00 0.00 0.00 81 1006.7
20260507094203 70 107 15.6 20.0 0.00 0.00 0.00 80 1006.7
20260507094103 70 110 15.6 20.0 0.00 0.00 0.00 80 1006.7
20260507094003 70 109 15.6 20.0 0.00 0.00 0.00 80 1006.4
20260507093903 70 109 15.6 20.0 0.00 0.00 0.00 80 1006.6
20260507093803 70 113 15.6 20.0 0.00 0.00 0.00 80 1006.6
20260507093703 71 113 15.6 20.0 0.00 0.00 0.00 79 1006.4
20260507093603 71 112 15.6 20.0 0.00 0.00 0.00 80 1006.5
20260507093503 70 113 16.5 20.0 0.00 0.00 0.00 80 1006.4
20260507093403 70 109 16.5 20.0 0.00 0.00 0.00 80 1006.6
20260507093303 70 105 15.6 20.0 0.00 0.00 0.00 80 1006.7
20260507093203 70 100 14.8 20.0 0.00 0.00 0.00 80 1006.6
20260507093103 70 90 14.8 17.4 0.00 0.00 0.00 80 1006.4
20260507093003 70 90 14.8 21.7 0.00 0.00 0.00 81 1006.6
20260507092903 70 90 14.8 21.7 0.00 0.00 0.00 80 1006.6
20260507092803 70 86 14.8 21.7 0.00 0.00 0.00 81 1006.6
20260507092703 71 84 14.8 21.7 0.00 0.00 0.00 80 1006.6
20260507092603 71 83 13.9 21.7 0.00 0.00 0.00 80 1006.5
20260507092504 71 85 14.8 21.7 0.00 0.00 0.00 79 1006.5
20260507092403 71 91 14.8 21.7 0.00 0.00 0.00 80 1006.6
20260507092306 71 94 14.8 21.7 0.00 0.00 0.00 80 1006.3
20260507092203 71 94 14.8 21.7 0.00 0.00 0.00 80 1006.3
20260507092103 70 97 14.8 21.7 0.00 0.00 0.00 80 1006.3
20260507092003 70 95 14.8 21.7 0.00 0.00 0.00 80 1006.5
20260507091903 70 93 13.9 19.1 0.00 0.00 0.00 79 1006.6
20260507091803 71 97 13.9 19.1 0.00 0.00 0.00 80 1006.5
20260507091703 70 98 13.9 19.1 0.00 0.00 0.00 80 1006.5
20260507091603 70 96 13.9 19.1 0.00 0.00 0.00 79 1006.5
20260507091503 70 93 13.9 19.1 0.00 0.00 0.00 79 1006.5
20260507091403 70 92 13.0 17.4 0.00 0.00 0.00 79 1006.4
20260507091303 71 91 13.0 20.0 0.00 0.00 0.00 79 1006.5
20260507091203 71 91 13.0 20.0 0.00 0.00 0.00 79 1006.4
20260507091103 70 91 13.0 20.0 0.00 0.00 0.00 79 1006.4
20260507091003 71 97 13.9 20.0 0.00 0.00 0.00 79 1006.5
20260507090903 70 100 13.9 20.0 0.00 0.00 0.00 79 1006.3
20260507090803 71 98 13.0 20.0 0.00 0.00 0.00 80 1006.6
20260507090703 71 99 13.0 20.0 0.00 0.00 0.00 80 1006.5
20260507090604 71 105 13.9 20.0 0.00 0.00 0.00 79 1006.5
20260507090503 70 108 13.9 20.0 0.00 0.00 0.00 80 1006.4
20260507090403 70 106 13.9 20.0 0.00 0.00 0.00 80 1006.4
20260507090303 70 108 13.9 20.0 0.00 0.00 0.00 81 1006.7
20260507090203 70 112 13.9 18.2 0.00 0.00 0.00 81 1006.4
20260507090103 70 114 13.0 18.2 0.00 0.00 0.00 80 1006.4
20260507090005 70 110 13.0 18.2 0.00 0.00 0.00 81 1006.7
20260507085903 70 107 13.0 18.2 0.00 0.00 0.00 80 1006.7
20260507085803 70 113 13.0 18.2 0.00 0.00 0.00 80 1006.5
20260507085703 70 109 13.0 18.2 0.00 0.00 0.00 80 1006.5
20260507085603 70 105 12.2 18.2 0.00 0.00 0.00 81 1006.7
20260507085503 70 100 12.2 14.8 0.00 0.00 0.00 80 1006.5
20260507085403 70 103 12.2 18.2 0.00 0.00 0.00 80 1006.4
20260507085308 70 104 12.2 18.2 0.00 0.00 0.00 81 1006.4
20260507085203 70 96 12.2 18.2 0.00 0.00 0.00 80 1006.7
20260507085103 69 87 12.2 18.2 0.00 0.00 0.00 80 1006.5
20260507085003 70 86 12.2 18.2 0.00 0.00 0.00 80 1006.5
20260507084903 70 87 12.2 18.2 0.00 0.00 0.00 80 1006.4
20260507084803 70 83 12.2 18.2 0.00 0.00 0.00 80 1006.6
20260507084703 70 90 12.2 18.2 0.00 0.00 0.00 81 1006.6
20260507084603 70 88 13.0 18.2 0.00 0.00 0.00 81 1006.3
20260507084503 69 88 13.0 18.2 0.00 0.00 0.00 82 1006.3
20260507084403 69 89 13.0 18.2 0.00 0.00 0.00 82 1006.4
20260507084303 69 84 13.0 18.2 0.00 0.00 0.00 82 1006.5
20260507084203 69 85 13.0 18.2 0.00 0.00 0.00 82 1006.7
20260507084103 69 85 13.0 18.2 0.00 0.00 0.00 82 1006.5
20260507084003 69 84 13.0 18.2 0.00 0.00 0.00 82 1006.5
20260507083903 69 77 13.0 15.6 0.00 0.00 0.00 82 1006.5
20260507083803 69 79 13.0 17.4 0.00 0.00 0.00 82 1006.7
20260507083703 69 76 13.9 17.4 0.00 0.00 0.00 82 1006.6
20260507083603 69 71 13.9 17.4 0.00 0.00 0.00 82 1006.4
20260507083503 69 68 13.9 17.4 0.00 0.00 0.00 82 1006.3
20260507083403 68 68 13.9 17.4 0.00 0.00 0.00 83 1006.4
20260507083303 69 70 13.9 17.4 0.00 0.00 0.00 82 1006.6
20260507083203 69 75 13.9 17.4 0.00 0.00 0.00 82 1006.4
20260507083103 69 74 14.8 17.4 0.00 0.00 0.00 83 1006.3
20260507083003 68 74 15.6 18.2 0.00 0.00 0.00 83 1006.4
20260507082903 68 80 15.6 18.2 0.00 0.00 0.00 83 1006.5
20260507082803 68 80 15.6 18.2 0.00 0.00 0.00 82 1006.1
20260507082703 68 80 15.6 18.2 0.00 0.00 0.00 83 1006.3
20260507082603 68 86 14.8 18.2 0.00 0.00 0.00 83 1006.3
20260507082503 68 91 14.8 18.2 0.00 0.00 0.00 83 1006.2
20260507082403 68 90 14.8 18.2 0.00 0.00 0.00 83 1006.5
20260507082306 68 87 13.9 18.2 0.00 0.00 0.00 83 1006.2
20260507082203 68 85 14.8 18.2 0.00 0.00 0.00 83 1006.4
20260507082103 68 88 13.9 18.2 0.00 0.00 0.00 83 1006.2
20260507082003 68 92 13.0 18.2 0.00 0.00 0.00 83 1006.3
20260507081903 68 89 12.2 17.4 0.00 0.00 0.00 83 1006.4
20260507081803 68 88 12.2 17.4 0.00 0.00 0.00 83 1006.4
20260507081703 68 87 12.2 17.4 0.00 0.00 0.00 83 1006.3
20260507081603 67 91 12.2 17.4 0.00 0.00 0.00 83 1006.4
20260507081503 68 91 12.2 17.4 0.00 0.00 0.00 83 1006.7
20260507081403 67 92 12.2 17.4 0.00 0.00 0.00 83 1006.4
20260507081303 67 90 11.3 17.4 0.00 0.00 0.00 83 1006.6
20260507081203 68 85 11.3 17.4 0.00 0.00 0.00 83 1006.6
20260507081103 68 77 12.2 23.5 0.00 0.00 0.00 83 1006.5
20260507081003 68 79 12.2 23.5 0.00 0.00 0.00 83 1006.4
20260507080903 67 83 13.0 23.5 0.00 0.00 0.00 83 1006.4
20260507080803 67 84 13.0 23.5 0.00 0.00 0.00 84 1006.4
20260507080703 67 86 13.0 23.5 0.00 0.00 0.00 84 1006.5
20260507080603 67 77 13.0 23.5 0.00 0.00 0.00 84 1006.5
20260507080503 67 74 13.0 23.5 0.00 0.00 0.00 84 1006.4
20260507080403 67 69 12.2 23.5 0.00 0.00 0.00 84 1006.5
20260507080303 67 74 13.0 23.5 0.00 0.00 0.00 84 1006.5
20260507080203 67 76 13.0 23.5 0.00 0.00 0.00 84 1006.6
20260507080103 67 77 12.2 23.5 0.00 0.00 0.00 84 1006.5
20260507080004 67 77 12.2 14.8 0.00 0.00 0.00 84 1006.6
20260507075903 67 64 12.2 14.8 0.00 0.00 0.00 84 1006.7
20260507075803 67 62 11.3 14.8 0.00 0.00 0.00 84 1006.6
20260507075703 67 63 11.3 14.8 0.00 0.00 0.00 84 1006.5
20260507075604 67 68 11.3 14.8 0.00 0.00 0.00 83 1006.6
20260507075503 68 74 11.3 14.8 0.00 0.00 0.00 83 1006.5
20260507075403 67 77 11.3 14.8 0.00 0.00 0.00 83 1006.5
20260507075306 67 79 11.3 14.8 0.00 0.00 0.00 84 1006.7
20260507075203 68 79 10.4 14.8 0.00 0.00 0.00 83 1006.4
20260507075103 68 77 10.4 14.8 0.00 0.00 0.00 84 1006.5
20260507075003 67 78 10.4 14.8 0.00 0.00 0.00 84 1006.7
20260507074903 67 83 10.4 13.9 0.00 0.00 0.00 84 1006.6
20260507074803 67 84 9.6 13.9 0.00 0.00 0.00 84 1006.6
20260507074703 67 79 10.4 13.9 0.00 0.00 0.00 83 1006.8
20260507074603 67 78 10.4 14.8 0.00 0.00 0.00 84 1006.5
20260507074503 67 78 10.4 14.8 0.00 0.00 0.00 84 1006.7
20260507074403 67 82 10.4 14.8 0.00 0.00 0.00 84 1006.6
20260507074303 67 77 11.3 14.8 0.00 0.00 0.00 84 1006.6
20260507074203 68 79 11.3 14.8 0.00 0.00 0.00 84 1006.8
20260507074103 67 82 12.2 14.8 0.00 0.00 0.00 84 1006.8
20260507074004 67 84 12.2 14.8 0.00 0.00 0.00 83 1006.7
20260507073903 67 87 12.2 14.8 0.00 0.00 0.00 83 1006.7
20260507073808 67 87 13.0 14.8 0.00 0.00 0.00 84 1006.7
20260507073703 67 89 13.0 14.8 0.00 0.00 0.00 84 1006.8
20260507073603 67 92 12.2 14.8 0.00 0.00 0.00 84 1006.9
20260507073503 67 90 12.2 14.8 0.00 0.00 0.00 84 1006.9
20260507073403 67 85 12.2 14.8 0.00 0.00 0.00 84 1006.6
20260507073303 67 88 12.2 14.8 0.00 0.00 0.00 84 1006.9
20260507073203 67 89 12.2 14.8 0.00 0.00 0.00 84 1007.0
20260507073103 67 90 11.3 14.8 0.00 0.00 0.00 84 1006.9
20260507073003 67 87 11.3 15.6 0.00 0.00 0.00 84 1006.9
20260507072903 67 82 11.3 15.6 0.00 0.00 0.00 84 1006.7
20260507072803 67 81 11.3 15.6 0.00 0.00 0.00 84 1007.1
20260507072703 67 84 11.3 15.6 0.00 0.00 0.00 84 1007.0
20260507072603 67 82 11.3 15.6 0.00 0.00 0.00 83 1006.9
20260507072503 67 79 11.3 15.6 0.00 0.00 0.00 83 1007.1
20260507072403 67 86 11.3 15.6 0.00 0.00 0.00 83 1006.8
20260507072306 67 85 11.3 15.6 0.00 0.00 0.00 84 1006.9
20260507072203 67 79 11.3 15.6 0.00 0.00 0.00 84 1006.8
20260507072103 67 75 11.3 15.6 0.00 0.00 0.00 83 1006.7
20260507072003 66 75 11.3 15.6 0.00 0.00 0.00 83 1006.7
20260507071903 66 78 11.3 14.8 0.00 0.00 0.00 84 1007.0
20260507071803 66 74 11.3 14.8 0.00 0.00 0.00 83 1006.9
20260507071703 66 72 11.3 14.8 0.00 0.00 0.00 83 1006.8
20260507071603 67 74 11.3 14.8 0.00 0.00 0.00 83 1006.8
20260507071503 67 74 12.2 14.8 0.00 0.00 0.00 83 1006.8
20260507071403 67 71 12.2 15.6 0.00 0.00 0.00 83 1007.1
20260507071303 67 73 13.0 17.4 0.00 0.00 0.00 83 1006.8
20260507071203 67 76 13.0 17.4 0.00 0.00 0.00 83 1006.8
20260507071103 67 80 13.0 17.4 0.00 0.00 0.00 83 1006.8
20260507071003 67 77 13.0 17.4 0.00 0.00 0.00 83 1006.7
20260507070903 66 73 13.0 20.0 0.00 0.00 0.00 83 1006.7
20260507070803 66 70 13.0 20.0 0.00 0.00 0.00 84 1006.6
20260507070703 66 70 13.9 20.0 0.00 0.00 0.00 83 1006.6
20260507070603 66 70 13.0 20.0 0.00 0.00 0.00 83 1006.3
20260507070503 67 71 13.0 20.0 0.00 0.00 0.00 83 1006.5
20260507070403 66 71 13.0 20.0 0.00 0.00 0.00 83 1006.4
20260507070303 67 61 13.0 20.0 0.00 0.00 0.00 83 1006.4
20260507070203 67 60 13.0 20.0 0.00 0.00 0.00 83 1006.4
20260507070103 67 62 13.0 20.0 0.00 0.00 0.00 83 1006.4
20260507070008 67 66 13.0 20.0 0.00 0.00 0.00 83 1006.3
20260507065903 67 73 13.0 20.0 0.00 0.00 0.00 83 1006.3
20260507065803 67 77 12.2 19.1 0.00 0.00 0.00 83 1006.4
20260507065703 67 77 12.2 19.1 0.00 0.00 0.00 82 1006.5
20260507065603 66 78 12.2 19.1 0.00 0.00 0.00 83 1006.3
20260507065503 66 79 12.2 19.1 0.00 0.00 0.00 83 1006.3
20260507065403 66 84 12.2 19.1 0.00 0.00 0.00 83 1006.4
20260507065306 66 90 12.2 19.1 0.00 0.00 0.00 83 1006.4
20260507065203 66 95 12.2 14.8 0.00 0.00 0.00 83 1006.4
20260507065103 66 96 12.2 14.8 0.00 0.00 0.00 83 1006.5
20260507065003 66 97 11.3 14.8 0.00 0.00 0.00 83 1006.5
20260507064903 66 94 11.3 14.8 0.00 0.00 0.00 83 1006.0
20260507064803 66 96 11.3 14.8 0.00 0.00 0.00 83 1006.4
20260507064703 66 97 11.3 14.8 0.00 0.00 0.00 83 1006.3
20260507064603 66 92 10.4 14.8 0.00 0.00 0.00 83 1006.3
20260507064503 66 86 10.4 14.8 0.00 0.00 0.00 83 1006.4
20260507064403 66 84 10.4 14.8 0.00 0.00 0.00 83 1006.3
20260507064303 65 80 10.4 14.8 0.00 0.00 0.00 84 1006.3
20260507064203 65 81 10.4 14.8 0.00 0.00 0.00 83 1006.4
20260507064104 66 79 10.4 14.8 0.00 0.00 0.00 83 1006.4
20260507064003 66 75 10.4 14.8 0.00 0.00 0.00 83 1006.4
20260507063903 66 82 9.6 14.8 0.00 0.00 0.00 83 1006.3
20260507063803 65 75 9.6 14.8 0.00 0.00 0.00 83 1006.3
20260507063703 65 72 10.4 14.8 0.00 0.00 0.00 83 1006.3
20260507063603 65 67 10.4 14.8 0.00 0.00 0.00 83 1006.6
20260507063503 65 62 11.3 14.8 0.00 0.00 0.00 83 1006.3
20260507063403 65 56 11.3 14.8 0.00 0.00 0.00 84 1006.3
20260507063303 65 52 11.3 14.8 0.00 0.00 0.00 84 1006.6
20260507063203 65 46 11.3 14.8 0.00 0.00 0.00 84 1006.5
20260507063103 65 44 11.3 14.8 0.00 0.00 0.00 83 1006.4
20260507063003 65 49 11.3 14.8 0.00 0.00 0.00 83 1006.3
20260507062903 65 50 11.3 14.8 0.00 0.00 0.00 84 1006.3
20260507062803 65 50 11.3 14.8 0.00 0.00 0.00 84 1006.0
20260507062703 65 52 11.3 14.8 0.00 0.00 0.00 84 1006.3
20260507062603 65 54 11.3 14.8 0.00 0.00 0.00 84 1006.1
20260507062503 65 58 11.3 14.8 0.00 0.00 0.00 84 1006.2
20260507062403 65 57 10.4 14.8 0.00 0.00 0.00 83 1006.3
20260507062306 65 52 11.3 14.8 0.00 0.00 0.00 83 1006.2
20260507062203 65 57 11.3 14.8 0.00 0.00 0.00 84 1006.4
20260507062103 65 59 11.3 15.6 0.00 0.00 0.00 84 1006.3
20260507062003 65 60 11.3 15.6 0.00 0.00 0.00 84 1006.3
20260507061903 65 54 12.2 15.6 0.00 0.00 0.00 84 1006.1
20260507061803 64 53 12.2 15.6 0.00 0.00 0.00 84 1006.2
20260507061703 65 54 12.2 15.6 0.00 0.00 0.00 84 1006.1
20260507061603 64 61 12.2 15.6 0.00 0.00 0.00 84 1006.3
20260507061503 64 59 12.2 15.6 0.00 0.00 0.00 84 1006.3
20260507061403 64 62 12.2 15.6 0.00 0.00 0.00 84 1006.2
20260507061303 64 65 13.0 20.0 0.00 0.00 0.00 83 1006.0
20260507061203 65 68 13.0 20.0 0.00 0.00 0.00 83 1006.3
20260507061103 65 68 13.0 20.0 0.00 0.00 0.00 83 1006.1
20260507061003 64 68 13.0 20.0 0.00 0.00 0.00 83 1006.2
20260507060903 64 69 13.0 20.0 0.00 0.00 0.00 84 1006.1
20260507060803 64 72 13.0 20.0 0.00 0.00 0.00 84 1006.3
20260507060703 64 70 13.0 20.0 0.00 0.00 0.00 84 1006.2
20260507060603 64 67 13.0 20.0 0.00 0.00 0.00 84 1005.9
20260507060503 64 67 13.0 20.0 0.00 0.00 0.00 84 1005.9
20260507060403 64 70 13.0 20.0 0.00 0.00 0.00 83 1006.0
20260507060303 64 74 13.0 20.0 0.00 0.00 0.00 83 1006.1
20260507060203 64 69 12.2 14.8 0.00 0.00 0.00 83 1006.3
20260507060003 64 64 11.3 13.9 0.00 0.00 0.00 84 1006.0
20260507055903 64 61 11.3 13.9 0.00 0.00 0.00 84 1005.8
20260507055803 64 61 11.3 13.9 0.00 0.00 0.00 84 1006.0
20260507055703 64 63 11.3 13.9 0.00 0.00 0.00 84 1006.0
20260507055603 63 68 11.3 17.4 0.00 0.00 0.00 84 1005.9
20260507055503 64 71 11.3 17.4 0.00 0.00 0.00 84 1006.1
20260507055403 63 70 11.3 18.2 0.00 0.00 0.00 84 1006.0
20260507055305 63 69 11.3 18.2 0.00 0.00 0.00 84 1006.0
20260507055203 64 74 12.2 18.2 0.00 0.00 0.00 84 1005.9
20260507055103 64 71 12.2 18.2 0.00 0.00 0.00 84 1005.8
20260507055004 63 74 11.3 18.2 0.00 0.00 0.00 84 1006.2
20260507054903 63 78 11.3 18.2 0.00 0.00 0.00 84 1005.9
20260507054803 63 76 12.2 18.2 0.00 0.00 0.00 84 1005.9
20260507054703 63 70 13.0 18.2 0.00 0.00 0.00 84 1005.9
20260507054603 63 72 12.2 18.2 0.00 0.00 0.00 84 1005.9
20260507054503 63 71 12.2 18.2 0.00 0.00 0.00 84 1005.9
20260507054403 63 71 13.0 20.9 0.00 0.00 0.00 84 1005.9
20260507054303 63 76 13.0 20.9 0.00 0.00 0.00 84 1005.8
20260507054203 63 70 13.9 20.9 0.00 0.00 0.00 84 1005.8
20260507054103 63 70 13.9 20.9 0.00 0.00 0.00 84 1005.8
20260507054003 63 68 14.8 20.9 0.00 0.00 0.00 84 1005.8
20260507053903 63 64 15.6 20.9 0.00 0.00 0.00 84 1005.8
20260507053803 63 65 15.6 20.9 0.00 0.00 0.00 84 1005.9
20260507053703 63 69 14.8 20.9 0.00 0.00 0.00 84 1005.7
20260507053603 63 66 15.6 20.9 0.00 0.00 0.00 84 1005.7
20260507053503 63 64 15.6 20.9 0.00 0.00 0.00 84 1005.7
20260507053403 63 60 15.6 20.9 0.00 0.00 0.00 84 1005.8
20260507053204 63 58 15.6 18.2 0.00 0.00 0.00 84 1005.7
20260507053103 63 61 14.8 18.2 0.00 0.00 0.00 84 1005.7
20260507053004 62 60 14.8 18.2 0.00 0.00 0.00 84 1005.6
20260507052903 62 60 14.8 18.2 0.00 0.00 0.00 84 1005.8
20260507052803 63 59 14.8 17.4 0.00 0.00 0.00 84 1005.6
20260507052703 63 56 14.8 17.4 0.00 0.00 0.00 84 1005.5
20260507052603 62 55 13.9 17.4 0.00 0.00 0.00 84 1005.5
20260507052503 62 54 13.9 17.4 0.00 0.00 0.00 84 1005.6
20260507052403 62 57 13.9 17.4 0.00 0.00 0.00 84 1005.6
20260507052306 62 54 13.0 17.4 0.00 0.00 0.00 84 1005.6
20260507052203 62 54 13.0 17.4 0.00 0.00 0.00 84 1005.7
20260507052103 62 55 13.0 17.4 0.00 0.00 0.00 84 1005.8
20260507052003 62 52 13.0 17.4 0.00 0.00 0.00 84 1005.6
20260507051903 62 54 13.0 17.4 0.00 0.00 0.00 84 1006.0
20260507051803 63 58 13.0 17.4 0.00 0.00 0.00 83 1005.7
20260507051703 63 60 13.0 17.4 0.00 0.00 0.00 83 1005.7
20260507051603 63 57 13.0 17.4 0.00 0.00 0.00 83 1005.6
20260507051503 63 58 13.9 20.0 0.00 0.00 0.00 84 1006.0
20260507051303 63 61 14.8 20.0 0.00 0.00 0.00 83 1005.8
20260507051203 62 60 13.9 20.0 0.00 0.00 0.00 84 1005.7
20260507051103 62 56 14.8 20.0 0.00 0.00 0.00 84 1005.6
20260507051003 62 56 14.8 20.0 0.00 0.00 0.00 84 1005.8
20260507050903 62 56 15.6 20.0 0.00 0.00 0.00 84 1005.6
20260507050803 63 55 15.6 20.0 0.00 0.00 0.00 83 1005.7
20260507050703 62 58 15.6 20.0 0.00 0.00 0.00 83 1005.6
20260507050603 62 58 16.5 20.0 0.00 0.00 0.00 84 1005.6
20260507050503 62 55 16.5 20.0 0.00 0.00 0.00 83 1005.5
20260507050403 63 56 15.6 19.1 0.00 0.00 0.00 82 1005.6
20260507050303 62 52 14.8 18.2 0.00 0.00 0.00 83 1005.5
20260507050203 62 51 14.8 18.2 0.00 0.00 0.00 84 1005.4
20260507050103 62 50 14.8 18.2 0.00 0.00 0.00 84 1005.4
20260507050004 62 48 13.9 18.2 0.00 0.00 0.00 83 1005.4
20260507045903 62 50 13.9 19.1 0.00 0.00 0.00 83 1005.4
20260507045803 62 50 13.9 19.1 0.00 0.00 0.00 84 1005.3
20260507045703 62 48 13.9 19.1 0.00 0.00 0.00 84 1005.2
20260507045603 62 43 13.9 19.1 0.00 0.00 0.00 83 1005.2
20260507045503 62 46 13.9 19.1 0.00 0.00 0.00 83 1005.2
20260507045403 62 46 13.9 19.1 0.00 0.00 0.00 84 1005.4
20260507045306 62 50 14.8 19.1 0.00 0.00 0.00 84 1005.4
20260507045203 62 59 14.8 19.1 0.00 0.00 0.00 84 1005.4
20260507045103 62 65 14.8 19.1 0.00 0.00 0.00 84 1005.4
20260507045003 62 70 14.8 19.1 0.00 0.00 0.00 84 1005.2
20260507044908 62 66 14.8 19.1 0.00 0.00 0.00 84 1005.4
20260507044803 62 66 14.8 19.1 0.00 0.00 0.00 84 1005.0
20260507044703 62 68 14.8 19.1 0.00 0.00 0.00 83 1005.2
20260507044603 62 71 13.9 19.1 0.00 0.00 0.00 83 1005.3
20260507044503 62 75 13.9 19.1 0.00 0.00 0.00 83 1005.3
20260507044403 62 81 13.0 19.1 0.00 0.00 0.00 83 1005.4
20260507044303 62 73 13.0 19.1 0.00 0.00 0.00 83 1005.4
20260507044203 62 67 13.0 19.1 0.00 0.00 0.00 83 1005.3
20260507044103 62 65 13.0 19.1 0.00 0.00 0.00 83 1005.3
20260507044003 62 62 13.0 18.2 0.00 0.00 0.00 83 1005.5
20260507043903 62 67 13.0 18.2 0.00 0.00 0.00 83 1005.5
20260507043803 62 68 13.0 18.2 0.00 0.00 0.00 83 1005.5
20260507043703 62 66 13.0 18.2 0.00 0.00 0.00 83 1005.5
20260507043603 62 64 12.2 18.2 0.00 0.00 0.00 83 1005.4
20260507043503 62 68 13.0 18.2 0.00 0.00 0.00 83 1005.5
20260507043403 62 62 13.0 18.2 0.00 0.00 0.00 83 1005.2
20260507043303 62 61 13.9 18.2 0.00 0.00 0.00 83 1005.2
20260507043203 62 63 13.9 18.2 0.00 0.00 0.00 83 1005.4
20260507043103 62 62 13.9 18.2 0.00 0.00 0.00 83 1005.4
20260507043003 62 60 13.0 18.2 0.00 0.00 0.00 83 1005.6
20260507042903 62 57 13.0 18.2 0.00 0.00 0.00 83 1005.4
20260507042803 61 55 13.0 18.2 0.00 0.00 0.00 83 1005.4
20260507042703 61 51 14.8 26.9 0.00 0.00 0.00 83 1005.4
20260507042603 62 50 15.6 26.9 0.00 0.00 0.00 83 1005.0
20260507042503 62 48 15.6 26.9 0.00 0.00 0.00 83 1005.6
20260507042403 62 45 16.5 26.9 0.00 0.00 0.00 83 1005.6
20260507042306 62 43 17.4 26.9 0.00 0.00 0.00 83 1005.5
20260507042203 62 39 18.2 26.9 0.00 0.00 0.00 83 1005.3
20260507042103 62 37 18.2 26.9 0.00 0.00 0.00 83 1005.3
20260507042003 62 40 18.2 26.9 0.00 0.00 0.00 83 1005.4
20260507041903 62 42 18.2 26.9 0.00 0.00 0.00 83 1005.4
20260507041803 62 43 18.2 26.9 0.00 0.00 0.00 83 1005.1
20260507041703 62 42 17.4 26.9 0.00 0.00 0.00 83 1005.3
20260507041603 62 41 17.4 25.2 0.00 0.00 0.00 83 1005.3
20260507041403 62 41 15.6 25.2 0.00 0.00 0.00 82 1005.1
20260507041303 62 42 14.8 21.7 0.00 0.00 0.00 83 1005.2
20260507041203 61 43 13.9 19.1 0.00 0.00 0.00 83 1005.1
20260507041103 61 45 14.8 19.1 0.00 0.00 0.00 83 1005.2
20260507041003 61 42 14.8 19.1 0.00 0.00 0.00 83 1005.3
20260507040903 61 42 14.8 19.1 0.00 0.00 0.00 83 1005.4
20260507040803 61 43 14.8 19.1 0.00 0.00 0.00 83 1005.6
20260507040703 61 44 14.8 19.1 0.00 0.00 0.00 83 1005.3
20260507040603 61 51 14.8 19.1 0.00 0.00 0.00 83 1005.4
20260507040503 61 54 14.8 19.1 0.00 0.00 0.00 83 1005.2
20260507040403 61 55 14.8 18.2 0.00 0.00 0.00 83 1005.5
20260507040303 61 55 14.8 18.2 0.00 0.00 0.00 83 1005.5
20260507040203 61 53 14.8 19.1 0.00 0.00 0.00 83 1005.4
20260507040103 61 50 14.8 19.1 0.00 0.00 0.00 83 1005.5
20260507040004 61 53 14.8 20.9 0.00 0.00 0.00 83 1005.6
20260507035903 61 63 15.6 20.9 0.00 0.00 0.00 83 1005.5
20260507035803 61 59 15.6 20.9 0.00 0.00 0.00 83 1005.5
20260507035703 61 59 15.6 20.9 0.00 0.00 0.00 83 1005.3
20260507035603 61 53 16.5 20.9 0.00 0.00 0.00 83 1005.5
20260507035503 61 43 15.6 20.9 0.00 0.00 0.00 84 1005.8
20260507035403 61 48 14.8 20.9 0.00 0.00 0.00 83 1005.7
20260507035306 61 48 14.8 20.9 0.00 0.00 0.00 83 1005.6
20260507035203 61 52 13.9 20.9 0.00 0.00 0.00 83 1005.7
20260507035103 61 54 13.9 20.9 0.00 0.00 0.00 83 1005.5
20260507035003 61 48 13.0 20.9 0.00 0.00 0.00 83 1005.6
20260507034903 61 38 12.2 20.9 0.00 0.00 0.00 83 1005.5
20260507034803 61 39 12.2 17.4 0.00 0.00 0.00 83 1005.7
20260507034703 61 38 11.3 17.4 0.00 0.00 0.00 83 1005.4
20260507034603 61 46 12.2 19.1 0.00 0.00 0.00 83 1005.9
20260507034503 61 52 12.2 19.1 0.00 0.00 0.00 83 1006.0
20260507034404 61 54 13.0 19.1 0.00 0.00 0.00 83 1005.7
20260507034303 61 56 13.0 19.1 0.00 0.00 0.00 83 1005.4
20260507034203 61 53 13.0 19.1 0.00 0.00 0.00 83 1005.6
20260507034103 61 52 13.0 19.1 0.00 0.00 0.00 83 1005.7
20260507034003 61 51 13.9 19.1 0.00 0.00 0.00 83 1005.7
20260507033903 61 54 13.9 19.1 0.00 0.00 0.00 83 1005.6
20260507033803 61 53 13.9 19.1 0.00 0.00 0.00 83 1005.6
20260507033703 61 54 13.9 19.1 0.00 0.00 0.00 83 1005.7
20260507033603 61 55 13.9 19.1 0.00 0.00 0.00 83 1005.5
20260507033503 61 57 13.9 19.1 0.00 0.00 0.00 83 1005.4
20260507033403 61 54 13.0 19.1 0.00 0.00 0.00 83 1005.5
20260507033303 61 53 13.0 19.1 0.00 0.00 0.00 83 1005.6
20260507033203 61 55 13.9 19.1 0.00 0.00 0.00 83 1005.5
20260507033103 61 63 13.0 19.1 0.00 0.00 0.00 83 1005.6
20260507033003 61 65 13.0 19.1 0.00 0.00 0.00 83 1005.6
20260507032803 61 65 13.9 19.1 0.00 0.00 0.00 84 1005.6
20260507032703 61 63 13.9 19.1 0.00 0.00 0.00 84 1005.5
20260507032603 61 58 13.9 19.1 0.00 0.00 0.00 84 1005.4
20260507032504 61 55 13.9 19.1 0.00 0.00 0.00 84 1005.5
20260507032403 61 51 13.9 19.1 0.00 0.00 0.00 83 1005.7
20260507032305 61 49 13.9 19.1 0.00 0.00 0.00 83 1005.4
20260507032203 61 46 13.9 19.1 0.00 0.00 0.00 84 1005.6
20260507032103 61 45 13.9 19.1 0.00 0.00 0.00 84 1005.4
20260507032003 61 46 13.9 19.1 0.00 0.00 0.00 83 1005.4
20260507031903 61 41 13.0 19.1 0.00 0.00 0.00 83 1005.7
20260507031803 61 47 13.0 19.1 0.00 0.00 0.00 83 1005.7
20260507031703 61 50 13.0 17.4 0.00 0.00 0.00 83 1005.5
20260507031603 61 53 13.0 17.4 0.00 0.00 0.00 83 1005.5
20260507031503 61 55 13.0 17.4 0.00 0.00 0.00 83 1005.8
20260507031403 61 51 13.0 15.6 0.00 0.00 0.00 83 1005.9
20260507031303 61 53 13.0 15.6 0.00 0.00 0.00 83 1005.9
20260507031203 61 57 13.9 15.6 0.00 0.00 0.00 83 1005.9
20260507031103 61 60 13.9 15.6 0.00 0.00 0.00 83 1005.9
20260507031003 61 62 13.9 15.6 0.00 0.00 0.00 83 1005.9
20260507030903 61 65 13.0 15.6 0.00 0.00 0.00 83 1006.0
20260507030803 60 62 12.2 15.6 0.00 0.00 0.00 83 1006.0
20260507030703 61 55 12.2 15.6 0.00 0.00 0.00 84 1006.2
20260507030603 61 52 11.3 15.6 0.00 0.00 0.00 83 1006.0
20260507030503 61 51 11.3 15.6 0.00 0.00 0.00 83 1006.3
20260507030403 61 52 11.3 15.6 0.00 0.00 0.00 83 1006.2
20260507030303 61 52 10.4 15.6 0.00 0.00 0.00 83 1006.4
20260507030203 61 50 9.6 15.6 0.00 0.00 0.00 83 1006.3
20260507030004 60 44 9.6 14.8 0.00 0.00 0.00 84 1006.4
20260507025903 60 40 9.6 14.8 0.00 0.00 0.00 84 1006.5
20260507025803 60 40 9.6 14.8 0.00 0.00 0.00 84 1006.3
20260507025703 61 43 9.6 14.8 0.00 0.00 0.00 84 1006.5
20260507025603 61 50 9.6 14.8 0.00 0.00 0.00 84 1006.3
20260507025503 61 53 9.6 14.8 0.00 0.00 0.00 84 1006.6
20260507025403 61 57 9.6 13.9 0.00 0.00 0.00 84 1006.5
20260507025306 61 60 10.4 13.9 0.00 0.00 0.00 84 1006.4
20260507025203 61 63 10.4 13.9 0.00 0.00 0.00 84 1006.6
20260507025103 61 65 10.4 13.9 0.00 0.00 0.00 84 1006.8
20260507025003 61 61 10.4 13.9 0.00 0.00 0.00 84 1006.5
20260507024903 61 59 11.3 13.9 0.00 0.00 0.00 84 1006.5
20260507024803 61 61 11.3 13.9 0.00 0.00 0.00 84 1006.7
20260507024703 61 66 11.3 15.6 0.00 0.00 0.00 84 1006.6
20260507024603 61 59 12.2 15.6 0.00 0.00 0.00 84 1006.5
20260507024503 61 59 12.2 15.6 0.00 0.00 0.00 84 1006.9
20260507024403 61 56 12.2 15.6 0.00 0.00 0.00 83 1006.7
20260507024303 61 51 11.3 15.6 0.00 0.00 0.00 83 1006.8
20260507024203 61 47 11.3 15.6 0.00 0.00 0.00 83 1006.9
20260507024103 61 48 11.3 15.6 0.00 0.00 0.00 83 1006.9
20260507024003 61 49 11.3 15.6 0.00 0.00 0.00 83 1006.8
20260507023903 61 51 11.3 15.6 0.00 0.00 0.00 83 1006.9
20260507023803 61 54 11.3 15.6 0.00 0.00 0.00 83 1007.1
20260507023703 61 48 11.3 15.6 0.00 0.00 0.00 83 1007.0
20260507023603 61 52 11.3 13.9 0.00 0.00 0.00 83 1007.1
20260507023503 61 51 11.3 13.9 0.00 0.00 0.00 83 1007.0
20260507023403 61 54 11.3 13.9 0.00 0.00 0.00 83 1007.0
20260507023303 61 56 11.3 13.9 0.00 0.00 0.00 83 1007.1
20260507023203 61 59 10.4 13.9 0.00 0.00 0.00 83 1006.9
20260507023103 61 52 11.3 15.6 0.00 0.00 0.00 83 1007.3
20260507023003 61 54 11.3 15.6 0.00 0.00 0.00 83 1007.0
20260507022903 61 57 11.3 15.6 0.00 0.00 0.00 83 1007.1
20260507022803 61 56 11.3 15.6 0.00 0.00 0.00 83 1007.1
20260507022703 61 53 11.3 15.6 0.00 0.00 0.00 83 1007.0
20260507022603 61 50 11.3 15.6 0.00 0.00 0.00 83 1007.1
20260507022503 61 49 11.3 15.6 0.00 0.00 0.00 83 1007.1
20260507022403 61 47 12.2 15.6 0.00 0.00 0.00 83 1007.1
20260507022306 61 50 12.2 15.6 0.00 0.00 0.00 83 1007.2
20260507022203 61 52 12.2 15.6 0.00 0.00 0.00 83 1007.2
20260507022103 61 57 12.2 15.6 0.00 0.00 0.00 83 1007.1
20260507022003 61 58 12.2 14.8 0.00 0.00 0.00 83 1007.1
20260507021903 61 52 12.2 14.8 0.00 0.00 0.00 83 1007.1
20260507021803 61 50 12.2 14.8 0.00 0.00 0.00 83 1007.1
20260507021703 61 54 12.2 14.8 0.00 0.00 0.00 83 1007.2
20260507021603 61 56 12.2 14.8 0.00 0.00 0.00 83 1007.2
20260507021503 61 55 12.2 14.8 0.00 0.00 0.00 83 1007.2
20260507021404 61 61 12.2 14.8 0.00 0.00 0.00 83 1007.3
20260507021303 61 59 11.3 13.9 0.00 0.00 0.00 83 1007.3
20260507021203 61 56 11.3 13.9 0.00 0.00 0.00 83 1007.0
20260507021103 61 52 11.3 13.9 0.00 0.00 0.00 83 1007.1
20260507021003 62 48 11.3 13.9 0.00 0.00 0.00 83 1007.2
20260507020903 62 48 11.3 13.9 0.00 0.00 0.00 83 1007.2
20260507020803 62 48 10.4 13.0 0.00 0.00 0.00 83 1007.3
20260507020703 62 52 11.3 13.0 0.00 0.00 0.00 83 1007.1
20260507020603 62 51 11.3 13.0 0.00 0.00 0.00 83 1007.6
20260507020503 62 52 11.3 13.0 0.00 0.00 0.00 83 1007.2
20260507020403 62 48 11.3 13.9 0.00 0.00 0.00 83 1007.5
20260507020303 62 47 11.3 13.9 0.00 0.00 0.00 83 1007.6
20260507020203 62 46 11.3 13.9 0.00 0.00 0.00 83 1007.5
20260507020103 62 46 11.3 15.6 0.00 0.00 0.00 83 1007.5
20260507020004 62 46 11.3 15.6 0.00 0.00 0.00 83 1007.5
20260507015903 62 47 12.2 15.6 0.00 0.00 0.00 83 1007.5
20260507015803 62 49 12.2 15.6 0.00 0.00 0.00 83 1007.3
20260507015703 62 46 11.3 15.6 0.00 0.00 0.00 83 1007.2
20260507015603 62 44 11.3 15.6 0.00 0.00 0.00 83 1007.4
20260507015503 62 43 12.2 15.6 0.00 0.00 0.00 83 1007.5
20260507015403 62 41 12.2 15.6 0.00 0.00 0.00 83 1007.5
20260507015306 62 40 12.2 15.6 0.00 0.00 0.00 83 1007.7
20260507015203 62 39 12.2 15.6 0.00 0.00 0.00 83 1007.8
20260507015104 62 36 12.2 15.6 0.00 0.00 0.00 83 1007.8
20260507015004 62 37 12.2 15.6 0.00 0.00 0.00 83 1007.8
20260507014903 62 39 11.3 13.9 0.00 0.00 0.00 83 1007.6
20260507014803 61 39 11.3 13.0 0.00 0.00 0.00 83 1007.6
20260507014703 62 39 12.2 13.0 0.00 0.00 0.00 83 1007.7
20260507014603 62 39 12.2 13.0 0.00 0.00 0.00 83 1007.5
20260507014503 62 39 12.2 14.8 0.00 0.00 0.00 83 1007.8
20260507014403 62 42 12.2 14.8 0.00 0.00 0.00 83 1007.6
20260507014303 62 42 12.2 14.8 0.00 0.00 0.00 83 1007.9
20260507014203 62 45 12.2 14.8 0.00 0.00 0.00 83 1007.7
20260507014103 62 46 12.2 14.8 0.00 0.00 0.00 83 1007.5
20260507014003 62 47 12.2 14.8 0.00 0.00 0.00 83 1007.7
20260507013903 62 45 12.2 14.8 0.00 0.00 0.00 83 1007.6
20260507013803 61 42 12.2 15.6 0.00 0.00 0.00 83 1007.5
20260507013703 61 41 12.2 15.6 0.00 0.00 0.00 83 1007.3
20260507013603 61 40 12.2 15.6 0.00 0.00 0.00 83 1007.5
20260507013503 61 40 12.2 15.6 0.00 0.00 0.00 83 1007.4
20260507013403 61 37 12.2 15.6 0.00 0.00 0.00 83 1007.5
20260507013303 61 35 12.2 15.6 0.00 0.00 0.00 83 1007.6
20260507013203 61 34 13.0 15.6 0.00 0.00 0.00 83 1007.4
20260507013103 61 36 13.0 15.6 0.00 0.00 0.00 83 1007.5
20260507013003 61 36 13.0 15.6 0.00 0.00 0.00 83 1007.7
20260507012903 61 40 13.0 19.1 0.00 0.00 0.00 83 1007.5
20260507012803 61 46 13.0 19.1 0.00 0.00 0.00 83 1007.4
20260507012703 61 48 13.0 19.1 0.00 0.00 0.00 83 1007.4
20260507012603 61 50 13.0 19.1 0.00 0.00 0.00 83 1007.4
20260507012503 61 51 13.0 19.1 0.00 0.00 0.00 83 1007.6
20260507012403 61 51 13.0 19.1 0.00 0.00 0.00 83 1007.5
20260507012306 61 55 13.0 19.1 0.00 0.00 0.00 83 1007.6
20260507012203 61 63 13.0 19.1 0.00 0.00 0.00 83 1007.5
20260507012103 61 64 13.0 19.1 0.00 0.00 0.00 83 1007.4
20260507012003 61 62 13.0 19.1 0.00 0.00 0.00 83 1007.4
20260507011903 61 54 13.0 19.1 0.00 0.00 0.00 83 1007.2
20260507011803 61 47 13.0 15.6 0.00 0.00 0.00 83 1007.3
20260507011703 61 44 13.0 15.6 0.00 0.00 0.00 83 1007.3
20260507011603 61 42 12.2 15.6 0.00 0.00 0.00 83 1007.4
20260507011503 61 43 12.2 15.6 0.00 0.00 0.00 83 1007.3
20260507011403 61 52 12.2 15.6 0.00 0.00 0.00 83 1007.6
20260507011303 61 53 12.2 15.6 0.00 0.00 0.00 83 1007.7
20260507011203 61 48 12.2 13.9 0.00 0.00 0.00 83 1007.7
20260507011103 61 44 11.3 13.9 0.00 0.00 0.00 83 1007.5
20260507011003 61 47 11.3 13.9 0.00 0.00 0.00 83 1007.4
20260507010903 61 48 11.3 13.9 0.00 0.00 0.00 83 1007.7
20260507010803 61 49 11.3 15.6 0.00 0.00 0.00 83 1007.5
20260507010703 61 55 12.2 15.6 0.00 0.00 0.00 83 1007.6
20260507010603 62 54 12.2 17.4 0.00 0.00 0.00 83 1007.5
20260507010503 62 53 12.2 17.4 0.00 0.00 0.00 83 1007.5
20260507010403 62 48 12.2 17.4 0.00 0.00 0.00 83 1007.6
20260507010303 62 41 12.2 17.4 0.00 0.00 0.00 83 1007.6
20260507010203 62 39 12.2 17.4 0.00 0.00 0.00 83 1007.7
20260507010003 62 41 13.0 17.4 0.00 0.00 0.00 83 1007.7
20260507005903 62 40 12.2 17.4 0.00 0.00 0.00 83 1007.5
20260507005803 62 45 12.2 17.4 0.00 0.00 0.00 83 1007.6
20260507005703 62 45 11.3 17.4 0.00 0.00 0.00 83 1007.8
20260507005603 62 49 10.4 13.9 0.00 0.00 0.00 83 1007.7
20260507005503 62 50 10.4 13.9 0.00 0.00 0.00 83 1007.6
20260507005403 62 54 10.4 13.9 0.00 0.00 0.00 83 1007.8
20260507005305 62 58 10.4 13.9 0.00 0.00 0.00 83 1007.7
20260507005203 62 60 9.6 13.9 0.00 0.00 0.00 83 1007.9
20260507005103 62 63 9.6 13.9 0.00 0.00 0.00 83 1007.8
20260507005003 62 64 9.6 13.9 0.00 0.00 0.00 83 1007.7
20260507004903 62 65 9.6 13.9 0.00 0.00 0.00 83 1007.9
20260507004804 62 61 10.4 13.9 0.00 0.00 0.00 83 1008.0
20260507004703 62 58 10.4 13.9 0.00 0.00 0.00 83 1008.0
20260507004603 62 53 10.4 15.6 0.00 0.00 0.00 83 1007.9
20260507004503 62 45 10.4 15.6 0.00 0.00 0.00 83 1008.1
20260507004403 62 35 10.4 15.6 0.00 0.00 0.00 84 1008.0
20260507004303 62 36 10.4 15.6 0.00 0.00 0.00 84 1007.9
20260507004203 62 36 11.3 15.6 0.00 0.00 0.00 84 1007.9
20260507004103 62 37 11.3 15.6 0.00 0.00 0.00 84 1008.1
20260507004003 62 33 10.4 15.6 0.00 0.00 0.00 84 1007.8
20260507003903 62 40 11.3 15.6 0.00 0.00 0.00 84 1007.8
20260507003803 62 43 10.4 15.6 0.00 0.00 0.00 83 1007.9
20260507003703 62 46 10.4 15.6 0.00 0.00 0.00 83 1008.0
20260507003603 62 51 11.3 15.6 0.00 0.00 0.00 83 1007.7
20260507003503 62 62 10.4 14.8 0.00 0.00 0.00 83 1008.0
20260507003403 62 65 10.4 14.8 0.00 0.00 0.00 83 1008.0
20260507003303 62 65 10.4 14.8 0.00 0.00 0.00 83 1008.0
20260507003203 62 68 10.4 14.8 0.00 0.00 0.00 84 1007.9
20260507003103 62 64 10.4 14.8 0.00 0.00 0.00 84 1007.9
20260507003003 62 63 11.3 14.8 0.00 0.00 0.00 84 1007.8
20260507002903 62 61 10.4 14.8 0.00 0.00 0.00 84 1007.8
20260507002803 62 65 10.4 13.9 0.00 0.00 0.00 84 1007.8
20260507002703 62 62 10.4 13.9 0.00 0.00 0.00 84 1007.8
20260507002603 62 59 10.4 14.8 0.00 0.00 0.00 84 1007.6
20260507002503 62 59 11.3 14.8 0.00 0.00 0.00 84 1007.8
20260507002403 62 61 10.4 14.8 0.00 0.00 0.00 84 1007.4
20260507002306 62 59 10.4 14.8 0.00 0.00 0.00 84 1007.8
20260507002203 62 68 11.3 14.8 0.00 0.00 0.00 84 1007.6
20260507002103 62 71 11.3 14.8 0.00 0.00 0.00 83 1007.7
20260507002003 62 70 11.3 14.8 0.00 0.00 0.00 84 1007.8
20260507001903 62 70 12.2 17.4 0.00 0.00 0.00 84 1008.0
20260507001803 62 67 13.0 17.4 0.00 0.00 0.00 84 1007.7
20260507001703 62 67 13.0 17.4 0.00 0.00 0.00 84 1007.8
20260507001603 62 76 13.0 17.4 0.00 0.00 0.00 84 1007.8
20260507001503 62 81 13.9 17.4 0.00 0.00 0.00 84 1007.8
20260507001403 62 85 13.9 17.4 0.00 0.00 0.00 84 1007.7
20260507001303 62 91 14.8 17.4 0.00 0.00 0.00 84 1007.7
20260507001203 62 94 14.8 17.4 0.00 0.00 0.00 84 1007.7
20260507001103 62 93 14.8 17.4 0.00 0.00 0.00 84 1008.0
20260507001003 62 99 15.6 17.4 0.00 0.00 0.00 84 1008.0
20260507000903 62 101 14.8 17.4 0.00 0.00 0.00 84 1007.8
20260507000803 62 104 14.8 14.8 0.00 0.00 0.00 84 1007.9
20260507000703 62 107 13.9 14.8 0.00 0.00 0.00 84 1007.8
20260507000603 62 105 13.9 18.2 0.00 0.00 0.00 84 1007.8
20260507000503 62 101 13.9 18.2 0.00 0.00 0.00 84 1007.6
20260507000405 62 91 13.9 18.2 0.00 0.00 0.00 84 1007.9
20260507000303 62 79 13.9 18.2 0.00 0.00 0.00 84 1007.6
20260507000205 62 69 13.9 18.2 0.00 0.00 0.00 84 1007.8
20260507000004 62 53 13.0 18.2 0.00 0.00 0.00 84 1007.9
20260506235903 62 49 13.0 18.2 0.00 0.00 0.00 84 1007.9
20260506235803 62 50 13.9 18.2 0.00 0.00 0.00 84 1007.9
20260506235703 62 54 13.9 18.2 0.00 0.00 0.00 84 1007.8
20260506235603 62 61 13.9 18.2 0.00 0.00 0.00 84 1007.9
20260506235503 62 61 13.0 15.6 0.00 0.00 0.00 84 1007.9
20260506235403 62 64 13.0 15.6 0.00 0.00 0.00 84 1008.0
20260506235306 62 65 13.0 15.6 0.00 0.00 0.00 84 1008.1
20260506235203 62 64 13.9 15.6 0.00 0.00 0.00 84 1007.9
20260506235103 62 60 13.0 15.6 0.00 0.00 0.00 84 1008.2
20260506235003 62 58 13.0 15.6 0.00 0.00 0.00 84 1008.0
20260506234903 62 56 13.0 15.6 0.00 0.00 0.00 84 1007.9
20260506234803 62 53 12.2 15.6 0.00 0.00 0.00 84 1008.1
20260506234703 62 50 12.2 15.6 0.00 0.00 0.00 84 1007.9
20260506234603 62 46 11.3 15.6 0.00 0.00 0.00 84 1008.1
20260506234503 62 45 11.3 15.6 0.00 0.00 0.00 84 1008.2
20260506234403 62 40 11.3 15.6 0.00 0.00 0.00 84 1008.2
20260506234303 62 41 10.4 14.8 0.00 0.00 0.00 84 1008.0
20260506234203 62 48 9.6 13.9 0.00 0.00 0.00 84 1008.1
20260506234103 62 52 9.6 13.9 0.00 0.00 0.00 84 1008.0
20260506234003 62 55 9.6 13.9 0.00 0.00 0.00 84 1008.3
20260506233903 62 59 9.6 13.9 0.00 0.00 0.00 84 1008.0
20260506233803 62 61 9.6 13.9 0.00 0.00 0.00 84 1008.1
20260506233703 62 62 10.4 13.9 0.00 0.00 0.00 84 1008.1
20260506233603 62 65 10.4 13.9 0.00 0.00 0.00 84 1008.2
20260506233503 62 60 10.4 13.9 0.00 0.00 0.00 84 1008.2
20260506233403 62 60 11.3 13.9 0.00 0.00 0.00 84 1008.1
20260506233303 62 58 11.3 13.9 0.00 0.00 0.00 84 1008.2
20260506233203 62 56 12.2 13.9 0.00 0.00 0.00 84 1008.0
20260506233103 62 51 12.2 13.9 0.00 0.00 0.00 84 1008.4
20260506233003 62 51 11.3 13.9 0.00 0.00 0.00 84 1008.2
20260506232903 62 51 12.2 13.9 0.00 0.00 0.00 84 1008.1
20260506232803 62 48 12.2 13.9 0.00 0.00 0.00 84 1008.3
20260506232703 62 46 12.2 13.9 0.00 0.00 0.00 84 1008.2
20260506232603 62 45 12.2 13.9 0.00 0.00 0.00 84 1008.3
20260506232503 62 44 12.2 15.6 0.00 0.00 0.00 84 1008.2
20260506232403 62 42 12.2 15.6 0.00 0.00 0.00 84 1008.6
20260506232306 62 40 12.2 15.6 0.00 0.00 0.00 84 1008.3
20260506232203 62 36 12.2 15.6 0.00 0.00 0.00 84 1008.2
20260506232103 62 37 12.2 15.6 0.00 0.00 0.00 84 1008.4
20260506232003 62 38 13.0 15.6 0.00 0.00 0.00 83 1008.3
20260506231903 62 35 13.0 15.6 0.00 0.00 0.00 83 1008.4
20260506231803 62 38 13.0 15.6 0.00 0.00 0.00 83 1008.4
20260506231703 62 37 13.0 15.6 0.00 0.00 0.00 83 1008.3
20260506231603 62 32 13.0 15.6 0.00 0.00 0.00 83 1008.3
20260506231504 62 32 13.0 15.6 0.00 0.00 0.00 83 1008.4
20260506231403 62 32 12.2 15.6 0.00 0.00 0.00 83 1008.5
20260506231303 63 36 12.2 15.6 0.00 0.00 0.00 83 1008.4
20260506231003 63 42 12.2 15.6 0.00 0.00 0.00 83 1008.6
20260506230903 63 46 12.2 15.6 0.00 0.00 0.00 83 1008.7
20260506230803 63 45 11.3 13.0 0.00 0.00 0.00 83 1008.8
20260506230703 63 39 11.3 13.0 0.00 0.00 0.00 83 1008.8
20260506230603 63 36 11.3 15.6 0.00 0.00 0.00 83 1008.8
20260506230503 63 38 12.2 15.6 0.00 0.00 0.00 82 1008.8
20260506230403 63 37 12.2 15.6 0.00 0.00 0.00 82 1008.9
20260506230303 63 37 12.2 15.6 0.00 0.00 0.00 82 1008.9
20260506230203 63 42 13.0 15.6 0.00 0.00 0.00 82 1009.1
20260506230103 63 41 13.0 15.6 0.00 0.00 0.00 82 1009.2
20260506230003 63 43 13.0 15.6 0.00 0.00 0.00 82 1009.2
20260506225903 63 42 13.0 15.6 0.00 0.00 0.00 82 1009.0
20260506225803 63 44 13.0 15.6 0.00 0.00 0.00 82 1009.0
20260506225703 63 43 13.0 15.6 0.00 0.00 0.00 82 1009.1
20260506225603 63 49 13.0 14.8 0.00 0.00 0.00 82 1009.1
20260506225503 63 50 12.2 14.8 0.00 0.00 0.00 82 1008.9
20260506225403 63 50 12.2 14.8 0.00 0.00 0.00 82 1009.0
20260506225305 63 46 12.2 14.8 0.00 0.00 0.00 82 1009.2
20260506225203 63 41 12.2 14.8 0.00 0.00 0.00 82 1008.9
20260506225103 63 37 12.2 14.8 0.00 0.00 0.00 82 1009.1
20260506225003 63 33 12.2 14.8 0.00 0.00 0.00 82 1009.3
20260506224903 63 35 12.2 14.8 0.00 0.00 0.00 82 1009.2
20260506224803 63 31 12.2 14.8 0.00 0.00 0.00 82 1009.1
20260506224703 63 36 12.2 14.8 0.00 0.00 0.00 82 1009.1
20260506224603 63 31 12.2 14.8 0.00 0.00 0.00 82 1009.2
20260506224503 63 33 12.2 14.8 0.00 0.00 0.00 82 1009.1
20260506224403 63 34 12.2 14.8 0.00 0.00 0.00 82 1009.3
20260506224303 63 42 12.2 14.8 0.00 0.00 0.00 82 1009.3
20260506224203 63 41 12.2 14.8 0.00 0.00 0.00 82 1009.3
20260506224103 63 46 12.2 14.8 0.00 0.00 0.00 82 1009.3
20260506224003 63 49 12.2 14.8 0.00 0.00 0.00 82 1009.3
20260506223903 63 45 12.2 14.8 0.00 0.00 0.00 82 1009.2
20260506223803 63 50 12.2 14.8 0.00 0.00 0.00 82 1009.4
20260506223703 63 49 11.3 14.8 0.00 0.00 0.00 82 1009.6
20260506223603 63 51 11.3 14.8 0.00 0.00 0.00 82 1009.4
20260506223503 63 48 11.3 14.8 0.00 0.00 0.00 82 1009.4
20260506223403 63 54 11.3 14.8 0.00 0.00 0.00 81 1009.5
20260506223303 63 51 11.3 14.8 0.00 0.00 0.00 81 1009.5
20260506223203 63 50 11.3 14.8 0.00 0.00 0.00 81 1009.2
20260506223103 63 50 10.4 13.9 0.00 0.00 0.00 81 1009.4
20260506223003 63 50 10.4 13.9 0.00 0.00 0.00 81 1009.3
20260506222903 63 49 10.4 13.9 0.00 0.00 0.00 81 1009.5
20260506222803 63 43 10.4 13.9 0.00 0.00 0.00 81 1009.2
20260506222703 63 40 10.4 13.9 0.00 0.00 0.00 81 1009.5
20260506222603 63 44 9.6 12.2 0.00 0.00 0.00 81 1009.5
20260506222503 63 40 10.4 13.0 0.00 0.00 0.00 81 1009.5
20260506222403 63 35 10.4 13.0 0.00 0.00 0.00 81 1009.6
20260506222305 63 33 10.4 13.0 0.00 0.00 0.00 81 1009.7
20260506222203 63 34 9.6 13.0 0.00 0.00 0.00 81 1009.6
20260506222103 63 34 9.6 13.0 0.00 0.00 0.00 81 1009.4
20260506222003 63 34 9.6 13.0 0.00 0.00 0.00 81 1009.7
20260506221903 63 37 9.6 13.0 0.00 0.00 0.00 82 1009.8
20260506221803 63 38 9.6 13.0 0.00 0.00 0.00 82 1009.6
20260506221703 63 39 9.6 13.0 0.00 0.00 0.00 81 1009.6
20260506221603 63 40 9.6 13.0 0.00 0.00 0.00 82 1009.6
20260506221504 63 48 8.7 12.2 0.00 0.00 0.00 82 1009.2
20260506221403 63 42 9.6 13.0 0.00 0.00 0.00 82 1009.7
20260506221303 63 43 9.6 13.0 0.00 0.00 0.00 82 1009.6
20260506221203 63 44 9.6 13.0 0.00 0.00 0.00 82 1009.6
20260506221103 63 47 9.6 13.0 0.00 0.00 0.00 82 1009.5
20260506221003 63 51 9.6 13.0 0.00 0.00 0.00 82 1009.7
20260506220903 63 48 9.6 13.0 0.00 0.00 0.00 82 1009.5
20260506220803 63 47 10.4 13.0 0.00 0.00 0.00 82 1009.4
20260506220703 63 49 10.4 13.0 0.00 0.00 0.00 82 1009.4
20260506220603 63 46 10.4 13.0 0.00 0.00 0.00 82 1009.4
20260506220503 63 42 10.4 13.0 0.00 0.00 0.00 82 1009.3
20260506220403 63 49 10.4 13.0 0.00 0.00 0.00 82 1009.4
20260506220304 63 51 9.6 13.0 0.00 0.00 0.00 82 1009.3
20260506220203 63 50 9.6 13.0 0.00 0.00 0.00 82 1009.4
20260506220027 63 44 9.6 13.0 0.00 0.00 0.00 82 1009.2
20260506215903 63 41 9.6 13.0 0.00 0.00 0.00 82 1009.3
20260506215803 63 47 9.6 13.0 0.00 0.00 0.00 82 1009.5
20260506215703 63 43 9.6 12.2 0.00 0.00 0.00 82 1009.2
20260506215603 63 43 9.6 12.2 0.00 0.00 0.00 82 1009.3
20260506215503 63 42 9.6 12.2 0.00 0.00 0.00 82 1009.6
20260506215403 63 42 10.4 14.8 0.00 0.00 0.00 82 1009.4
20260506215306 63 39 10.4 14.8 0.00 0.00 0.00 82 1009.2
20260506215203 63 40 10.4 14.8 0.00 0.00 0.00 82 1009.4
20260506215103 63 36 10.4 14.8 0.00 0.00 0.00 82 1009.3
20260506215003 63 37 10.4 14.8 0.00 0.00 0.00 82 1009.2
20260506214903 63 40 10.4 14.8 0.00 0.00 0.00 82 1009.4
20260506214803 63 34 9.6 14.8 0.00 0.00 0.00 82 1009.5
20260506214703 63 40 9.6 14.8 0.00 0.00 0.00 82 1009.5
20260506214603 63 40 8.7 14.8 0.00 0.00 0.00 82 1009.4
20260506214503 63 40 8.7 14.8 0.00 0.00 0.00 82 1009.4
20260506214403 63 33 7.8 12.2 0.00 0.00 0.00 82 1009.5
20260506214303 63 38 7.8 9.6 0.00 0.00 0.00 83 1009.5
20260506214203 63 39 7.8 9.6 0.00 0.00 0.00 83 1009.5
20260506214103 63 46 7.8 9.6 0.00 0.00 0.00 83 1009.5
20260506214003 63 46 7.8 9.6 0.00 0.00 0.00 83 1009.6
20260506213903 63 40 7.8 11.3 0.00 0.00 0.00 83 1009.6
20260506213803 63 37 7.8 11.3 0.00 0.00 0.00 83 1009.6
20260506213708 63 38 8.7 13.0 0.00 0.00 0.00 83 1009.4
20260506213603 63 35 8.7 13.0 0.00 0.00 0.00 83 1009.5
20260506213503 63 32 9.6 13.0 0.00 0.00 0.00 83 1009.4
20260506213403 63 39 9.6 13.0 0.00 0.00 0.00 83 1009.5
20260506213303 63 37 9.6 13.0 0.00 0.00 0.00 83 1009.4
20260506213203 63 36 9.6 13.0 0.00 0.00 0.00 83 1009.5
20260506213103 63 37 9.6 13.0 0.00 0.00 0.00 83 1009.6
20260506213004 63 38 9.6 13.0 0.00 0.00 0.00 83 1009.4
20260506212903 63 39 9.6 13.0 0.00 0.00 0.00 83 1009.5
20260506212803 63 43 9.6 13.0 0.00 0.00 0.00 83 1009.6
20260506212703 63 40 9.6 13.0 0.00 0.00 0.00 83 1009.5
20260506212603 63 40 9.6 12.2 0.00 0.00 0.00 83 1009.6
20260506212503 63 42 9.6 12.2 0.00 0.00 0.00 83 1009.5
20260506212403 63 43 9.6 12.2 0.00 0.00 0.00 83 1009.6
20260506212306 63 45 9.6 12.2 0.00 0.00 0.00 83 1009.4
20260506212203 63 47 9.6 12.2 0.00 0.00 0.00 83 1009.5
20260506212103 63 47 9.6 12.2 0.00 0.00 0.00 83 1009.3
20260506212003 63 48 9.6 12.2 0.00 0.00 0.00 83 1009.3
20260506211903 63 47 9.6 12.2 0.00 0.00 0.00 83 1009.3
20260506211803 63 46 9.6 12.2 0.00 0.00 0.00 83 1009.4
20260506211703 63 44 9.6 12.2 0.00 0.00 0.00 83 1009.4
20260506211603 63 45 9.6 12.2 0.00 0.00 0.00 83 1009.3
20260506211503 63 47 9.6 12.2 0.00 0.00 0.00 83 1009.4
20260506211403 63 47 9.6 12.2 0.00 0.00 0.00 83 1009.2
20260506211303 63 44 8.7 11.3 0.00 0.00 0.00 83 1009.4
20260506211203 63 41 9.6 15.6 0.00 0.00 0.00 83 1009.4
20260506211103 63 39 10.4 15.6 0.00 0.00 0.00 83 1009.2
20260506211003 63 39 10.4 15.6 0.00 0.00 0.00 83 1009.3
20260506210903 63 39 10.4 15.6 0.00 0.00 0.00 83 1009.1
20260506210803 63 42 10.4 15.6 0.00 0.00 0.00 83 1009.2
20260506210703 64 43 10.4 15.6 0.00 0.00 0.00 83 1009.2
20260506210603 64 42 10.4 15.6 0.00 0.00 0.00 83 1009.2
20260506210503 64 42 10.4 15.6 0.00 0.00 0.00 83 1009.3
20260506210403 64 44 10.4 15.6 0.00 0.00 0.00 83 1009.1
20260506210303 64 45 10.4 15.6 0.00 0.00 0.00 83 1009.1
20260506210203 64 45 10.4 15.6 0.00 0.00 0.00 84 1009.2
20260506210103 64 44 10.4 15.6 0.00 0.00 0.00 84 1009.1
20260506210004 64 45 9.6 13.9 0.00 0.00 0.00 83 1009.3
20260506205903 64 46 9.6 13.9 0.00 0.00 0.00 83 1009.2
20260506205803 64 44 9.6 13.9 0.00 0.00 0.00 83 1009.2
20260506205703 64 41 9.6 13.9 0.00 0.00 0.00 83 1008.8
20260506205603 64 41 9.6 13.9 0.00 0.00 0.00 83 1009.1
20260506205503 64 42 9.6 13.9 0.00 0.00 0.00 83 1009.3
20260506205403 64 43 8.7 13.9 0.00 0.00 0.00 83 1009.2
20260506205305 64 43 9.6 13.9 0.00 0.00 0.00 83 1009.2
20260506205203 64 44 9.6 13.9 0.00 0.00 0.00 83 1009.2
20260506205103 64 44 9.6 14.8 0.00 0.00 0.00 83 1009.2
20260506205003 64 43 9.6 14.8 0.00 0.00 0.00 83 1009.2
20260506204903 64 43 10.4 14.8 0.00 0.00 0.00 83 1009.2
20260506204803 64 47 10.4 14.8 0.00 0.00 0.00 83 1009.2
20260506204703 64 49 11.3 14.8 0.00 0.00 0.00 83 1009.4
20260506204603 64 50 10.4 14.8 0.00 0.00 0.00 83 1009.6
20260506204503 64 50 11.3 14.8 0.00 0.00 0.00 83 1009.5
20260506204403 64 46 11.3 14.8 0.00 0.00 0.00 83 1009.4
20260506204303 64 45 11.3 14.8 0.00 0.00 0.00 83 1009.2
20260506204203 64 44 11.3 14.8 0.00 0.00 0.00 83 1009.1
20260506204103 64 50 10.4 14.8 0.00 0.00 0.00 83 1009.3
20260506204003 64 54 10.4 14.8 0.00 0.00 0.00 83 1009.4
20260506203903 64 58 10.4 14.8 0.00 0.00 0.00 83 1009.4
20260506203803 64 55 10.4 17.4 0.00 0.00 0.00 83 1009.6
20260506203703 64 56 11.3 17.4 0.00 0.00 0.00 83 1009.3
20260506203603 64 57 11.3 17.4 0.00 0.00 0.00 83 1009.4
20260506203503 64 58 11.3 17.4 0.00 0.00 0.00 83 1009.3
20260506203403 64 65 11.3 17.4 0.00 0.00 0.00 83 1009.2
20260506203303 64 69 11.3 17.4 0.00 0.00 0.00 83 1009.2
20260506203203 64 72 11.3 17.4 0.00 0.00 0.00 83 1009.4
20260506203103 64 68 11.3 17.4 0.00 0.00 0.00 83 1009.3
20260506203003 64 63 11.3 17.4 0.00 0.00 0.00 83 1009.3
20260506202903 64 63 10.4 17.4 0.00 0.00 0.00 83 1009.0
20260506202803 64 62 9.6 13.9 0.00 0.00 0.00 83 1009.3
20260506202703 64 61 9.6 13.9 0.00 0.00 0.00 83 1009.3
20260506202603 64 56 9.6 13.9 0.00 0.00 0.00 83 1009.1
20260506202503 65 54 8.7 13.0 0.00 0.00 0.00 83 1009.1
20260506202403 65 43 9.6 14.8 0.00 0.00 0.00 83 1009.0
20260506202306 65 38 9.6 14.8 0.00 0.00 0.00 83 1009.1
20260506202203 65 35 9.6 14.8 0.00 0.00 0.00 83 1009.1
20260506202103 65 35 9.6 14.8 0.00 0.00 0.00 83 1009.1
20260506202003 65 39 9.6 14.8 0.00 0.00 0.00 82 1009.1
20260506201903 65 35 9.6 14.8 0.00 0.00 0.00 82 1009.2
20260506201803 65 33 9.6 14.8 0.00 0.00 0.00 82 1009.2
20260506201603 65 36 8.7 14.8 0.00 0.00 0.00 82 1009.1
20260506201503 65 40 9.6 14.8 0.00 0.00 0.00 82 1009.1
20260506201403 65 42 9.6 14.8 0.00 0.00 0.00 82 1009.3
20260506201303 65 43 9.6 13.0 0.00 0.00 0.00 82 1009.2
20260506201203 65 44 9.6 13.0 0.00 0.00 0.00 82 1009.2
20260506201103 65 43 9.6 13.0 0.00 0.00 0.00 82 1009.3
20260506201003 65 43 9.6 13.0 0.00 0.00 0.00 82 1009.4
20260506200903 65 46 9.6 13.0 0.00 0.00 0.00 82 1009.4
20260506200803 65 49 9.6 13.0 0.00 0.00 0.00 82 1009.3
20260506200703 65 47 9.6 13.0 0.00 0.00 0.00 82 1009.4
20260506200603 65 48 9.6 13.0 0.00 0.00 0.00 82 1009.2
20260506200503 65 47 8.7 13.0 0.00 0.00 0.00 82 1009.2
20260506200403 65 47 8.7 11.3 0.00 0.00 0.00 82 1009.1
20260506200303 65 51 8.7 11.3 0.00 0.00 0.00 82 1009.2
20260506200203 65 56 8.7 11.3 0.00 0.00 0.00 82 1009.1
20260506200103 66 57 8.7 11.3 0.00 0.00 0.00 82 1009.2
20260506200004 66 56 8.7 11.3 0.00 0.00 0.00 82 1009.2
20260506195903 66 55 8.7 11.3 0.00 0.00 0.00 82 1009.3
20260506195803 66 54 8.7 11.3 0.00 0.00 0.00 82 1009.1
20260506195703 66 55 8.7 12.2 0.00 0.00 0.00 82 1009.1
20260506195603 66 53 8.7 12.2 0.00 0.00 0.00 83 1009.1
20260506195503 66 51 9.6 12.2 0.00 0.00 0.00 83 1009.1
20260506195403 66 48 9.6 12.2 0.00 0.00 0.00 83 1009.1
20260506195306 66 44 9.6 12.2 0.00 0.00 0.00 83 1009.1
20260506195203 66 38 9.6 12.2 0.00 0.00 0.00 83 1009.3
20260506195103 65 35 8.7 12.2 0.00 0.00 0.00 83 1009.2
20260506195003 65 34 9.6 12.2 0.00 0.00 0.00 83 1009.1
20260506194903 65 34 9.6 12.2 0.00 0.00 0.00 83 1008.9
20260506194803 66 34 9.6 12.2 0.00 0.00 0.00 83 1009.1
20260506194703 66 33 8.7 11.3 0.00 0.00 0.00 83 1008.9
20260506194603 66 31 8.7 11.3 0.00 0.00 0.00 83 1008.8
20260506194503 66 30 8.7 11.3 0.00 0.00 0.00 83 1008.8
20260506194403 66 34 8.7 11.3 0.00 0.00 0.00 83 1008.8
20260506194303 66 34 7.8 11.3 0.00 0.00 0.00 83 1008.6
20260506194203 66 36 7.8 11.3 0.00 0.00 0.00 83 1008.6
20260506194103 66 33 7.8 11.3 0.00 0.00 0.00 83 1008.6
20260506194003 66 36 7.8 11.3 0.00 0.00 0.00 83 1008.6
20260506193903 66 35 7.0 11.3 0.00 0.00 0.00 83 1008.4
20260506193803 66 41 7.8 11.3 0.00 0.00 0.00 83 1008.5
20260506193703 66 43 7.0 9.6 0.00 0.00 0.00 83 1008.7
20260506193603 66 49 7.0 9.6 0.00 0.00 0.00 83 1008.6
20260506193503 66 50 7.0 9.6 0.00 0.00 0.00 83 1008.6
20260506193403 66 52 7.0 9.6 0.00 0.00 0.00 83 1008.6
20260506193303 66 55 7.0 9.6 0.00 0.00 0.00 83 1008.7
20260506193203 66 55 7.0 9.6 0.00 0.00 0.00 83 1008.6
20260506193103 66 60 6.1 9.6 0.00 0.00 0.00 83 1008.6
20260506193003 66 61 7.0 9.6 0.00 0.00 0.00 83 1008.7
20260506192903 66 57 7.0 9.6 0.00 0.00 0.00 83 1008.7
20260506192803 66 52 7.0 9.6 0.00 0.00 0.00 83 1008.6
20260506192703 66 51 7.0 9.6 0.00 0.00 0.00 83 1008.6
20260506192603 67 52 7.0 9.6 0.00 0.00 0.00 83 1008.8
20260506192503 67 55 6.1 9.6 0.00 0.00 0.00 83 1008.7
20260506192403 67 55 6.1 9.6 0.00 0.00 0.00 83 1008.8
20260506192305 67 58 6.1 9.6 0.00 0.00 0.00 83 1008.6
20260506192203 67 62 6.1 9.6 0.00 0.00 0.00 83 1008.8
20260506192103 67 68 6.1 9.6 0.00 0.00 0.00 83 1008.7
20260506192003 67 67 6.1 9.6 0.00 0.00 0.00 83 1008.5
20260506191903 67 68 7.0 9.6 0.00 0.00 0.00 83 1008.4
20260506191803 67 70 6.1 9.6 0.00 0.00 0.00 83 1008.5
20260506191703 67 73 6.1 9.6 0.00 0.00 0.00 83 1008.3
20260506191603 67 72 6.1 9.6 0.00 0.00 0.00 83 1008.4
20260506191503 67 67 7.0 9.6 0.00 0.00 0.00 83 1008.5
20260506191403 67 65 7.0 9.6 0.00 0.00 0.00 83 1008.4
20260506191303 67 58 7.0 11.3 0.00 0.00 0.00 83 1008.6
20260506191203 67 58 7.8 11.3 0.00 0.00 0.00 83 1008.2
20260506191103 67 51 7.0 11.3 0.00 0.00 0.00 83 1008.4
20260506190903 67 53 7.0 11.3 0.00 0.00 0.00 83 1008.1
20260506190803 67 51 7.0 11.3 0.00 0.00 0.00 83 1008.3
20260506190703 67 51 7.0 11.3 0.00 0.00 0.00 83 1008.1
20260506190603 67 50 7.0 11.3 0.00 0.00 0.00 83 1008.3
20260506190503 67 54 7.0 11.3 0.00 0.00 0.00 83 1008.2
20260506190403 67 52 7.0 11.3 0.00 0.00 0.00 83 1008.2
20260506190303 67 54 6.1 11.3 0.00 0.00 0.00 83 1008.1
20260506190203 67 52 6.1 7.8 0.00 0.00 0.00 83 1008.3
20260506190004 67 63 6.1 7.8 0.00 0.00 0.00 83 1008.0
20260506185903 67 67 6.1 7.8 0.00 0.00 0.00 83 1008.3
20260506185803 67 62 6.1 11.3 0.00 0.00 0.00 83 1008.3
20260506185703 67 62 7.0 13.0 0.00 0.00 0.00 83 1008.4
20260506185603 67 61 7.0 13.0 0.00 0.00 0.00 83 1008.1
20260506185503 67 60 7.0 13.0 0.00 0.00 0.00 83 1008.3
20260506185403 67 63 7.0 13.0 0.00 0.00 0.00 83 1008.3
20260506185306 67 64 7.8 13.0 0.00 0.00 0.00 83 1008.4
20260506185203 67 65 7.8 13.0 0.00 0.00 0.00 83 1008.2
20260506185103 67 63 7.8 13.0 0.00 0.00 0.00 83 1008.0
20260506185003 67 63 7.8 13.0 0.00 0.00 0.00 83 1008.1
20260506184903 67 61 7.8 13.0 0.00 0.00 0.00 83 1008.0
20260506184803 67 67 7.8 13.0 0.00 0.00 0.00 83 1008.1
20260506184703 67 68 7.0 9.6 0.00 0.00 0.00 83 1008.0
20260506184603 67 68 7.0 9.6 0.00 0.00 0.00 83 1008.0
20260506184503 67 69 7.0 9.6 0.00 0.00 0.00 83 1008.2
20260506184403 67 66 7.0 9.6 0.00 0.00 0.00 83 1008.1
20260506184303 67 71 7.0 7.8 0.00 0.00 0.00 83 1008.1
20260506184203 67 75 7.0 9.6 0.00 0.00 0.00 83 1008.2
20260506184103 67 73 7.0 9.6 0.00 0.00 0.00 83 1008.2
20260506184003 67 70 7.0 9.6 0.00 0.00 0.00 83 1008.3
20260506183903 67 69 7.8 9.6 0.00 0.00 0.00 83 1008.2
20260506183803 67 68 7.8 9.6 0.00 0.00 0.00 83 1008.3
20260506183704 67 67 7.0 9.6 0.00 0.00 0.00 83 1008.3
20260506183604 67 69 7.8 9.6 0.00 0.00 0.00 83 1008.3
20260506183503 67 71 7.8 9.6 0.00 0.00 0.00 83 1008.1
20260506183403 67 74 7.8 9.6 0.00 0.00 0.00 83 1008.1
20260506183303 67 77 8.7 9.6 0.00 0.00 0.00 83 1008.1
20260506183203 67 73 7.8 9.6 0.00 0.00 0.00 83 1008.0
20260506183103 67 75 8.7 11.3 0.00 0.00 0.00 83 1008.1
20260506183004 67 79 8.7 11.3 0.00 0.00 0.00 83 1007.9
20260506182903 67 77 7.8 11.3 0.00 0.00 0.00 83 1008.1
20260506182803 67 74 8.7 11.3 0.00 0.00 0.00 83 1008.0
20260506182703 67 68 8.7 11.3 0.00 0.00 0.00 83 1008.1
20260506182603 67 70 8.7 12.2 0.00 0.00 0.00 83 1007.8
20260506182503 67 68 8.7 12.2 0.00 0.00 0.00 83 1007.7
20260506182403 67 61 8.7 12.2 0.00 0.00 0.00 83 1008.0
20260506182306 67 57 9.6 12.2 0.00 0.00 0.00 83 1007.7
20260506182203 67 56 8.7 12.2 0.00 0.00 0.00 83 1007.6
20260506182103 67 59 8.7 12.2 0.00 0.00 0.00 83 1007.7
20260506182003 68 58 8.7 12.2 0.00 0.00 0.00 83 1007.8
20260506181903 68 59 9.6 12.2 0.00 0.00 0.00 83 1007.7
20260506181803 68 61 8.7 12.2 0.00 0.00 0.00 83 1007.8
20260506181703 68 64 8.7 12.2 0.00 0.00 0.00 83 1007.7
20260506181603 68 61 7.8 11.3 0.00 0.00 0.00 83 1007.7
20260506181503 68 62 7.8 11.3 0.00 0.00 0.00 83 1007.7
20260506181403 68 67 7.0 11.3 0.00 0.00 0.00 83 1007.8
20260506181303 68 69 6.1 11.3 0.00 0.00 0.00 83 1007.6
20260506181203 68 69 6.1 9.6 0.00 0.00 0.00 82 1007.6
20260506181103 68 64 5.2 7.8 0.00 0.00 0.00 82 1007.7
20260506181003 68 60 5.2 7.8 0.00 0.00 0.00 82 1007.8
20260506180903 68 59 5.2 7.8 0.00 0.00 0.00 82 1007.8
20260506180803 67 54 5.2 7.8 0.00 0.00 0.00 82 1007.6
20260506180703 67 54 5.2 7.8 0.00 0.00 0.00 82 1007.7
20260506180603 67 59 6.1 9.6 0.00 0.00 0.00 82 1007.7
20260506180503 67 61 6.1 9.6 0.00 0.00 0.00 82 1007.6
20260506180403 67 63 7.0 11.3 0.00 0.00 0.00 82 1007.3
20260506180303 67 62 7.0 11.3 0.00 0.00 0.00 82 1007.4
20260506180203 67 65 7.8 11.3 0.00 0.00 0.00 82 1007.2
20260506180103 67 66 7.8 12.2 0.00 0.00 0.00 82 1007.1
20260506180004 67 76 8.7 12.2 0.00 0.00 0.00 82 1007.1
20260506175903 67 80 8.7 12.2 0.00 0.00 0.00 82 1007.1
20260506175803 67 83 8.7 12.2 0.00 0.00 0.00 82 1007.0
20260506175703 67 84 8.7 12.2 0.00 0.00 0.00 82 1007.0
20260506175603 67 81 7.8 12.2 0.00 0.00 0.00 82 1007.2
20260506175503 67 82 7.8 12.2 0.00 0.00 0.00 82 1007.1
20260506175403 67 82 7.0 12.2 0.00 0.00 0.00 82 1007.1
20260506175306 67 84 6.1 12.2 0.00 0.00 0.00 82 1007.2
20260506175203 67 87 5.2 12.2 0.00 0.00 0.00 82 1007.2
20260506175103 67 90 4.3 9.6 0.00 0.00 0.00 81 1007.3
20260506175003 67 77 4.3 9.6 0.00 0.00 0.00 81 1007.3
20260506174903 67 72 4.3 7.8 0.00 0.00 0.00 81 1007.1
20260506174803 66 73 4.3 6.1 0.00 0.00 0.00 82 1007.5
20260506174703 66 81 4.3 7.0 0.00 0.00 0.00 82 1007.6
20260506174603 66 90 4.3 7.8 0.00 0.00 0.00 82 1007.5
20260506174503 66 96 5.2 7.8 0.00 0.00 0.00 82 1007.8
20260506174403 66 99 6.1 7.8 0.00 0.00 0.00 82 1008.0
20260506174303 66 105 6.1 7.8 0.00 0.00 0.00 82 1008.1
20260506174203 66 103 6.1 7.8 0.00 0.00 0.00 82 1007.8
20260506174103 66 104 6.1 7.8 0.00 0.00 0.00 83 1008.1
20260506174003 66 106 7.0 7.8 0.00 0.00 0.00 83 1008.1
20260506173903 66 107 7.0 7.8 0.00 0.00 0.00 83 1008.1
20260506173803 66 109 7.0 7.8 0.00 0.00 0.00 83 1008.2
20260506173703 66 111 7.0 7.8 0.00 0.00 0.00 83 1008.4
20260506173603 66 111 7.0 7.8 0.00 0.00 0.00 84 1008.1
20260506173503 66 109 7.0 9.6 0.00 0.00 0.00 84 1008.4
20260506173403 66 109 7.8 9.6 0.00 0.00 0.00 84 1008.4
20260506173203 66 112 7.8 9.6 0.00 0.00 0.00 84 1008.5
20260506173103 66 113 7.8 9.6 0.00 0.00 0.00 84 1008.8
20260506172903 66 115 7.8 9.6 0.00 0.00 0.00 84 1008.6
20260506172803 66 116 7.8 9.6 0.00 0.00 0.00 84 1008.7
20260506172703 66 115 7.8 9.6 0.00 0.00 0.00 84 1008.7
20260506172603 66 119 8.7 9.6 0.00 0.00 0.00 84 1008.5
20260506172503 66 118 7.8 9.6 0.00 0.00 0.00 84 1008.9
20260506172403 67 119 7.8 9.6 0.00 0.00 0.00 84 1009.0
20260506172306 67 117 7.8 9.6 0.00 0.00 0.00 84 1008.9
20260506172203 67 117 7.8 9.6 0.00 0.00 0.00 84 1008.9
20260506172103 67 114 7.0 9.6 0.00 0.00 0.00 84 1009.0
20260506172003 67 115 7.0 9.6 0.00 0.00 0.00 83 1008.7
20260506171903 67 113 7.0 9.6 0.00 0.00 0.00 83 1009.0
20260506171803 67 113 7.0 9.6 0.00 0.00 0.00 83 1008.8
20260506171703 67 115 7.0 9.6 0.00 0.00 0.00 83 1009.0
20260506171603 67 111 7.0 7.8 0.00 0.00 0.00 83 1009.0
20260506171503 67 111 6.1 7.8 0.00 0.00 0.00 83 1008.9
20260506171403 67 111 6.1 7.8 0.00 0.00 0.00 83 1009.0
20260506171303 67 111 6.1 7.8 0.00 0.00 0.00 83 1008.9
20260506171203 67 113 6.1 7.8 0.00 0.00 0.00 82 1009.0
20260506171103 67 117 6.1 7.8 0.00 0.00 0.00 82 1009.1
20260506171003 67 118 6.1 7.8 0.00 0.00 0.00 82 1009.0
20260506170903 67 118 5.2 7.8 0.00 0.00 0.00 82 1009.2
20260506170803 67 119 5.2 7.8 0.00 0.00 0.00 82 1009.1
20260506170703 67 121 5.2 7.0 0.00 0.00 0.00 82 1009.2
20260506170603 67 119 5.2 6.1 0.00 0.00 0.00 82 1009.2
20260506170503 67 128 4.3 6.1 0.00 0.00 0.00 82 1009.0
20260506170403 67 129 4.3 6.1 0.00 0.00 0.00 82 1009.2
20260506170303 67 133 4.3 6.1 0.00 0.00 0.00 82 1009.0
20260506170203 67 134 4.3 6.1 0.00 0.00 0.00 82 1009.2
20260506170103 67 133 5.2 7.0 0.00 0.00 0.00 82 1009.4
20260506170004 68 137 5.2 7.0 0.00 0.00 0.00 82 1009.1
20260506165903 68 139 5.2 7.0 0.00 0.00 0.00 82 1009.4
20260506165803 68 146 5.2 9.6 0.00 0.00 0.00 81 1009.5
20260506165703 68 149 5.2 9.6 0.00 0.00 0.00 81 1009.5
20260506165603 68 148 5.2 9.6 0.00 0.00 0.00 81 1009.2
20260506165503 68 142 6.1 9.6 0.00 0.00 0.00 81 1009.6
20260506165403 68 140 6.1 9.6 0.00 0.00 0.00 81 1009.7
20260506165305 68 134 6.1 9.6 0.00 0.00 0.00 81 1009.5
20260506165203 68 133 6.1 9.6 0.00 0.00 0.00 81 1009.3
20260506165103 68 140 6.1 9.6 0.00 0.00 0.00 81 1009.5
20260506165003 68 145 7.0 9.6 0.00 0.00 0.00 80 1009.7
20260506164903 68 143 7.0 9.6 0.00 0.00 0.00 80 1009.6
20260506164804 68 141 7.0 9.6 0.00 0.00 0.00 80 1009.4
20260506164703 68 139 6.1 9.6 0.00 0.00 0.00 80 1009.6
20260506164603 69 142 6.1 9.6 0.00 0.00 0.00 80 1009.6
20260506164503 69 152 7.0 9.6 0.00 0.00 0.00 80 1009.7
20260506164403 69 159 7.0 9.6 0.00 0.00 0.00 80 1009.6
20260506164303 69 165 7.0 9.6 0.00 0.00 0.00 80 1009.5
20260506164203 69 167 6.1 9.6 0.00 0.00 0.00 80 1009.5
20260506164103 69 163 6.1 9.6 0.00 0.00 0.00 79 1009.4
20260506164003 69 165 6.1 9.6 0.00 0.00 0.00 79 1009.7
20260506163903 70 166 6.1 9.6 0.00 0.00 0.00 78 1009.6
20260506163803 70 165 5.2 9.6 0.00 0.00 0.00 77 1009.5
20260506163703 70 162 5.2 9.6 0.00 0.00 0.00 76 1009.5
20260506163603 70 157 6.1 9.6 0.00 0.00 0.00 75 1009.3
20260506163503 70 146 5.2 9.6 0.00 0.00 0.00 75 1009.3
20260506163403 70 141 5.2 7.0 0.00 0.00 0.00 74 1009.5
20260506163303 70 147 5.2 7.0 0.00 0.00 0.00 73 1009.4
20260506163203 70 158 5.2 7.0 0.00 0.00 0.00 73 1009.2
20260506163103 70 159 6.1 7.0 0.00 0.00 0.00 72 1009.4
20260506163003 70 153 5.2 7.0 0.00 0.00 0.00 72 1009.2
20260506162903 71 145 5.2 9.6 0.00 0.00 0.00 72 1009.3
20260506162803 71 141 6.1 9.6 0.00 0.00 0.00 72 1009.4
20260506162703 71 141 6.1 9.6 0.00 0.00 0.00 72 1009.3
20260506162603 70 141 7.0 9.6 0.00 0.00 0.00 71 1009.1
20260506162503 71 138 7.0 9.6 0.00 0.00 0.00 71 1009.1
20260506162403 71 131 7.0 9.6 0.00 0.00 0.00 71 1008.9
20260506162306 71 124 7.0 9.6 0.00 0.00 0.00 71 1009.0
20260506162203 71 118 7.0 9.6 0.00 0.00 0.00 71 1009.1
20260506162103 71 117 6.1 9.6 0.00 0.00 0.00 71 1008.8
20260506162003 70 117 6.1 9.6 0.00 0.00 0.00 71 1008.8
20260506161903 70 120 6.1 9.6 0.00 0.00 0.00 71 1008.9
20260506161803 70 122 6.1 9.6 0.00 0.00 0.00 71 1008.9
20260506161703 70 113 6.1 9.6 0.00 0.00 0.00 71 1008.8
20260506161603 71 109 6.1 7.8 0.00 0.00 0.00 70 1008.5
20260506161503 71 111 6.1 7.8 0.00 0.00 0.00 70 1008.7
20260506161403 70 112 6.1 7.8 0.00 0.00 0.00 70 1008.8
20260506161303 71 112 6.1 7.8 0.00 0.00 0.00 70 1008.5
20260506161203 71 111 7.0 9.6 0.00 0.00 0.00 69 1008.6
20260506161103 71 110 7.0 9.6 0.00 0.00 0.00 69 1008.6
20260506161003 71 110 7.0 9.6 0.00 0.00 0.00 68 1008.5
20260506160903 71 106 7.8 9.6 0.00 0.00 0.00 68 1008.4
20260506160803 71 104 7.8 9.6 0.00 0.00 0.00 68 1008.4
20260506160703 71 110 7.0 9.6 0.00 0.00 0.00 68 1008.5
20260506160603 71 111 7.0 9.6 0.00 0.00 0.00 68 1008.5
20260506160503 71 113 7.8 9.6 0.00 0.00 0.00 68 1008.6
20260506160403 71 114 7.8 9.6 0.00 0.00 0.00 68 1008.5
20260506160303 71 110 7.8 9.6 0.00 0.00 0.00 68 1008.6
20260506160203 71 111 7.8 9.6 0.00 0.00 0.00 68 1008.7
20260506160003 71 110 7.8 7.8 0.00 0.00 0.00 68 1009.0
20260506155903 71 114 7.8 7.8 0.00 0.00 0.00 69 1009.1
20260506155803 71 116 7.8 9.6 0.00 0.00 0.00 68 1009.2
20260506155703 71 119 7.8 9.6 0.00 0.00 0.00 68 1009.0
20260506155603 71 122 7.8 9.6 0.00 0.00 0.00 67 1009.0
20260506155503 71 124 7.8 9.6 0.00 0.00 0.00 67 1008.9
20260506155403 71 124 7.8 9.6 0.00 0.00 0.00 67 1009.2
20260506155306 71 128 7.8 9.6 0.00 0.00 0.00 68 1008.9
20260506155203 71 129 7.0 9.6 0.00 0.00 0.00 68 1009.0
20260506155103 71 132 7.0 9.6 0.00 0.00 0.00 68 1008.9
20260506155003 71 130 7.0 9.6 0.00 0.00 0.00 68 1009.2
20260506154903 71 127 7.0 9.6 0.00 0.00 0.00 68 1009.1
20260506154803 71 122 7.0 9.6 0.00 0.00 0.00 69 1009.2
20260506154703 71 119 7.0 9.6 0.00 0.00 0.00 68 1009.0
20260506154603 71 118 7.0 9.6 0.00 0.00 0.00 69 1009.2
20260506154503 71 117 7.8 9.6 0.00 0.00 0.00 71 1009.1
20260506154403 71 121 7.8 9.6 0.00 0.00 0.00 71 1009.2
20260506154303 71 120 7.8 9.6 0.00 0.00 0.00 71 1009.1
20260506154203 71 118 7.8 9.6 0.00 0.00 0.00 70 1009.1
20260506154103 71 117 7.8 9.6 0.00 0.00 0.00 70 1009.1
20260506154003 71 115 7.8 9.6 0.00 0.00 0.00 70 1008.9
20260506153903 71 117 7.8 9.6 0.00 0.00 0.00 71 1008.8
20260506153803 71 118 7.8 9.6 0.00 0.00 0.00 71 1009.1
20260506153703 71 118 7.8 9.6 0.00 0.00 0.00 71 1008.7
20260506153603 71 116 7.8 9.6 0.00 0.00 0.00 72 1009.0
20260506153503 71 114 7.8 9.6 0.00 0.00 0.00 72 1008.8
20260506153403 71 109 7.8 9.6 0.00 0.00 0.00 72 1008.7
20260506153303 71 105 7.8 9.6 0.00 0.00 0.00 72 1008.6
20260506153203 71 106 7.8 9.6 0.00 0.00 0.00 72 1008.6
20260506153103 71 103 7.8 9.6 0.00 0.00 0.00 72 1008.7
20260506153003 71 105 7.8 9.6 0.00 0.00 0.00 72 1008.6
20260506152903 71 104 7.8 9.6 0.00 0.00 0.00 72 1008.4
20260506152803 71 103 7.8 9.6 0.00 0.00 0.00 72 1008.8
20260506152703 71 103 8.7 9.6 0.00 0.00 0.00 72 1008.6
20260506152603 71 102 8.7 9.6 0.00 0.00 0.00 73 1008.6
20260506152503 71 102 7.8 9.6 0.00 0.00 0.00 73 1008.6
20260506152403 71 102 7.8 9.6 0.00 0.00 0.00 75 1008.9
20260506152305 70 106 7.8 9.6 0.00 0.00 0.00 75 1008.6
20260506152203 70 108 7.8 9.6 0.00 0.00 0.00 78 1008.7
20260506152103 70 110 7.8 9.6 0.00 0.00 0.00 78 1008.8
20260506152003 70 110 8.7 9.6 0.00 0.00 0.00 78 1008.9
20260506151903 70 111 8.7 9.6 0.00 0.00 0.00 78 1009.0
20260506151803 70 110 8.7 9.6 0.00 0.00 0.00 78 1008.9
20260506151703 70 110 8.7 9.6 0.00 0.00 0.00 78 1008.9
20260506151603 70 114 8.7 9.6 0.00 0.00 0.00 77 1009.3
20260506151503 70 113 7.8 9.6 0.00 0.00 0.00 77 1009.2
20260506151403 70 114 7.8 9.6 0.00 0.00 0.00 76 1009.2
20260506151303 70 116 7.8 9.6 0.00 0.00 0.00 76 1009.4
20260506151203 70 113 7.0 9.6 0.00 0.00 0.00 75 1009.4
20260506151103 70 112 7.0 9.6 0.00 0.00 0.00 75 1009.3
20260506151003 70 116 7.0 9.6 0.00 0.00 0.00 75 1009.5
20260506150903 71 121 6.1 9.6 0.00 0.00 0.00 75 1009.6
20260506150803 71 126 6.1 9.6 0.00 0.00 0.00 75 1009.7
20260506150703 71 130 6.1 9.6 0.00 0.00 0.00 76 1009.9
20260506150603 71 128 6.1 7.8 0.00 0.00 0.00 76 1009.6
20260506150503 71 127 6.1 9.6 0.00 0.00 0.00 76 1009.8
20260506150403 71 131 6.1 9.6 0.00 0.00 0.00 75 1009.9
20260506150305 72 134 7.0 9.6 0.00 0.00 0.00 75 1009.8
20260506150203 72 136 7.0 9.6 0.00 0.00 0.00 75 1010.0
20260506150004 71 136 7.8 9.6 0.00 0.00 0.00 75 1009.8
20260506145903 71 136 7.8 9.6 0.00 0.00 0.00 74 1010.0
20260506145804 72 137 7.8 9.6 0.00 0.00 0.00 72 1009.9
20260506145703 72 133 7.8 9.6 0.00 0.00 0.00 71 1009.9
20260506145603 72 131 7.8 9.6 0.00 0.00 0.00 70 1010.0
20260506145503 72 133 7.8 9.6 0.00 0.00 0.00 68 1010.1
20260506145403 72 135 7.8 9.6 0.00 0.00 0.00 67 1010.1
20260506145305 72 139 7.8 9.6 0.00 0.00 0.00 66 1010.2
20260506145203 72 140 7.8 9.6 0.00 0.00 0.00 66 1010.1
20260506145103 73 141 7.8 9.6 0.00 0.00 0.00 65 1010.0
20260506145003 73 139 7.8 9.6 0.00 0.00 0.00 65 1010.0
20260506144903 73 140 7.8 9.6 0.00 0.00 0.00 65 1010.0
20260506144803 73 138 7.0 9.6 0.00 0.00 0.00 65 1010.1
20260506144703 73 141 7.0 9.6 0.00 0.00 0.00 64 1010.0
20260506144603 73 143 7.0 9.6 0.00 0.00 0.00 64 1010.1
20260506144503 73 149 6.1 9.6 0.00 0.00 0.00 63 1010.4
20260506144403 73 147 6.1 9.6 0.00 0.00 0.00 63 1010.2
20260506144303 73 136 6.1 9.6 0.00 0.00 0.00 62 1010.1
20260506144203 73 128 6.1 9.6 0.00 0.00 0.00 61 1010.3
20260506144103 74 122 6.1 7.8 0.00 0.00 0.00 61 1010.1
20260506144003 74 123 6.1 7.8 0.00 0.00 0.00 61 1010.1
20260506143903 73 118 6.1 9.6 0.00 0.00 0.00 60 1010.0
20260506143803 74 118 7.0 11.3 0.00 0.00 0.00 61 1010.3
20260506143703 73 115 7.0 11.3 0.00 0.00 0.00 61 1010.1
20260506143603 73 113 7.0 11.3 0.00 0.00 0.00 62 1010.3
20260506143503 73 109 7.8 11.3 0.00 0.00 0.00 62 1010.1
20260506143403 73 109 7.8 11.3 0.00 0.00 0.00 62 1010.3
20260506143303 73 105 8.7 11.3 0.00 0.00 0.00 62 1010.1
20260506143203 73 105 8.7 11.3 0.00 0.00 0.00 61 1010.0
20260506143103 73 105 8.7 11.3 0.00 0.00 0.00 61 1010.1
20260506143003 73 107 8.7 11.3 0.00 0.00 0.00 60 1010.1
20260506142903 73 111 9.6 11.3 0.00 0.00 0.00 60 1010.0
20260506142803 73 109 9.6 12.2 0.00 0.00 0.00 61 1009.8